Time,TemperatureF,DewpointF,PressureIn,WindDirection,WindDirectionDegrees,WindSpeedMPH,WindSpeedGustMPH,Humidity,HourlyPrecipIn,Conditions,Clouds,dailyrainin,SoftwareType,DateUTC
2013-02-25 00:00:00,46.7,31.4,29.90,ENE,69,1.0,1.0,55,0.00,,---,0.00,VWS V14.01,2013-02-25 06:00:00,
2013-02-25 00:01:00,46.7,31.4,29.90,ENE,69,1.0,1.0,55,0.00,,---,0.00,VWS V14.01,2013-02-25 06:01:00,
2013-02-25 00:05:00,46.7,31.4,29.91,SE,146,0.0,5.0,55,0.00,,---,0.00,VWS V14.01,2013-02-25 06:05:00,
2013-02-25 00:06:00,46.7,31.4,29.91,SE,131,1.0,5.0,55,0.00,,---,0.00,VWS V14.01,2013-02-25 06:06:00,
2013-02-25 00:10:00,46.7,31.4,29.90,East,90,1.0,6.0,55,0.00,,---,0.00,VWS V14.01,2013-02-25 06:10:00,
2013-02-25 00:11:00,46.7,31.4,29.90,East,90,1.0,6.0,55,0.00,,---,0.00,VWS V14.01,2013-02-25 06:11:00,
2013-02-25 00:16:00,46.6,31.8,29.90,East,100,3.0,4.0,56,0.00,,---,0.00,VWS V14.01,2013-02-25 06:16:00,
2013-02-25 00:21:00,46.5,31.7,29.90,SE,131,2.0,6.0,56,0.00,,---,0.00,VWS V14.01,2013-02-25 06:21:00,
2013-02-25 00:26:00,46.4,31.6,29.90,ENE,77,2.0,6.0,56,0.00,,---,0.00,VWS V14.01,2013-02-25 06:26:00,
2013-02-25 00:31:00,46.3,31.9,29.89,NE,38,1.0,1.0,57,0.00,,---,0.00,VWS V14.01,2013-02-25 06:31:00,
2013-02-25 00:36:00,46.2,31.8,29.90,SSE,162,1.0,4.0,57,0.00,,---,0.00,VWS V14.01,2013-02-25 06:36:00,
2013-02-25 00:41:00,46.1,31.7,29.90,SE,130,2.0,4.0,57,0.00,,---,0.00,VWS V14.01,2013-02-25 06:41:00,
2013-02-25 00:42:00,46.1,31.7,29.90,SE,124,1.0,4.0,57,0.00,,---,0.00,VWS V14.01,2013-02-25 06:42:00,
2013-02-25 00:46:00,46.0,31.6,29.90,SE,125,1.0,3.0,57,0.00,,---,0.00,VWS V14.01,2013-02-25 06:46:00,
2013-02-25 00:47:00,46.0,31.6,29.90,SE,125,1.0,3.0,57,0.00,,---,0.00,VWS V14.01,2013-02-25 06:47:00,
2013-02-25 00:51:00,45.8,31.9,29.89,ENE,74,3.0,6.0,58,0.00,,---,0.00,VWS V14.01,2013-02-25 06:51:00,
2013-02-25 00:52:00,45.8,31.5,29.89,East,80,1.0,6.0,57,0.00,,---,0.00,VWS V14.01,2013-02-25 06:52:00,
2013-02-25 00:56:00,45.7,31.8,29.89,East,82,2.0,6.0,58,0.00,,---,0.00,VWS V14.01,2013-02-25 06:56:00,
2013-02-25 00:57:00,45.7,31.8,29.89,East,92,2.0,6.0,58,0.00,,---,0.00,VWS V14.01,2013-02-25 06:57:00,
2013-02-25 01:01:00,45.6,31.3,29.89,East,82,2.0,4.0,57,0.00,,---,0.00,VWS V14.01,2013-02-25 07:01:00,
2013-02-25 01:02:00,45.6,31.3,29.89,East,83,1.0,4.0,57,0.00,,---,0.00,VWS V14.01,2013-02-25 07:02:00,
2013-02-25 01:06:00,45.6,31.3,29.89,East,97,3.0,6.0,57,0.00,,---,0.00,VWS V14.01,2013-02-25 07:06:00,
2013-02-25 01:07:00,45.6,31.3,29.89,ENE,76,4.0,6.0,57,0.00,,---,0.00,VWS V14.01,2013-02-25 07:07:00,
2013-02-25 01:11:00,45.6,31.3,29.89,ENE,73,3.0,6.0,57,0.00,,---,0.00,VWS V14.01,2013-02-25 07:11:00,
2013-02-25 01:12:00,45.6,31.3,29.89,NE,56,3.0,7.0,57,0.00,,---,0.00,VWS V14.01,2013-02-25 07:12:00,
2013-02-25 01:17:00,45.7,31.4,29.89,ESE,111,6.0,6.0,57,0.00,,---,0.00,VWS V14.01,2013-02-25 07:17:00,
2013-02-25 01:22:00,45.6,31.3,29.89,ENE,77,0.0,6.0,57,0.00,,---,0.00,VWS V14.01,2013-02-25 07:22:00,
2013-02-25 01:23:00,45.6,31.3,29.89,ESE,122,1.0,6.0,57,0.00,,---,0.00,VWS V14.01,2013-02-25 07:23:00,
2013-02-25 01:27:00,45.4,31.1,29.89,ENE,69,3.0,6.0,57,0.00,,---,0.00,VWS V14.01,2013-02-25 07:27:00,
2013-02-25 01:28:00,45.4,31.1,29.89,East,82,3.0,6.0,57,0.00,,---,0.00,VWS V14.01,2013-02-25 07:28:00,
2013-02-25 01:32:00,45.2,30.9,29.89,ENE,65,0.0,5.0,57,0.00,,---,0.00,VWS V14.01,2013-02-25 07:32:00,
2013-02-25 01:33:00,45.2,31.3,29.89,SE,127,1.0,5.0,58,0.00,,---,0.00,VWS V14.01,2013-02-25 07:33:00,
2013-02-25 01:37:00,45.2,30.9,29.89,ESE,110,1.0,5.0,57,0.00,,---,0.00,VWS V14.01,2013-02-25 07:37:00,
2013-02-25 01:38:00,45.1,30.8,29.89,ESE,108,1.0,5.0,57,0.00,,---,0.00,VWS V14.01,2013-02-25 07:38:00,
2013-02-25 01:42:00,45.1,30.8,29.89,East,87,3.0,7.0,57,0.00,,---,0.00,VWS V14.01,2013-02-25 07:42:00,
2013-02-25 01:43:00,45.2,30.9,29.89,ENE,75,9.0,9.0,57,0.00,,---,0.00,VWS V14.01,2013-02-25 07:43:00,
2013-02-25 01:48:00,45.3,31.0,29.89,ENE,76,2.0,7.0,57,0.00,,---,0.00,VWS V14.01,2013-02-25 07:48:00,
2013-02-25 01:53:00,45.3,31.0,29.88,ENE,77,2.0,7.0,57,0.00,,---,0.00,VWS V14.01,2013-02-25 07:53:00,
2013-02-25 01:58:00,45.4,30.6,29.88,ENE,70,1.0,7.0,56,0.00,,---,0.00,VWS V14.01,2013-02-25 07:58:00,
2013-02-25 02:03:00,45.4,30.6,29.88,NE,55,4.0,6.0,56,0.00,,---,0.00,VWS V14.01,2013-02-25 08:03:00,
2013-02-25 02:08:00,45.4,30.6,29.88,ENE,59,2.0,6.0,56,0.00,,---,0.00,VWS V14.01,2013-02-25 08:08:00,
2013-02-25 02:09:00,45.4,30.6,29.87,ENE,77,4.0,6.0,56,0.00,,---,0.00,VWS V14.01,2013-02-25 08:09:00,
2013-02-25 02:13:00,45.3,30.5,29.87,ENE,76,5.0,6.0,56,0.00,,---,0.00,VWS V14.01,2013-02-25 08:13:00,
2013-02-25 02:18:00,45.4,30.6,29.87,East,86,2.0,6.0,56,0.00,,---,0.00,VWS V14.01,2013-02-25 08:18:00,
2013-02-25 02:19:00,45.3,30.5,29.87,East,87,1.0,6.0,56,0.00,,---,0.00,VWS V14.01,2013-02-25 08:19:00,
2013-02-25 02:23:00,45.2,30.5,29.88,East,79,1.0,6.0,56,0.00,,---,0.00,VWS V14.01,2013-02-25 08:23:00,
2013-02-25 02:24:00,45.2,30.5,29.88,ESE,115,3.0,6.0,56,0.00,,---,0.00,VWS V14.01,2013-02-25 08:24:00,
2013-02-25 02:28:00,45.3,30.5,29.88,SE,127,1.0,6.0,56,0.00,,---,0.00,VWS V14.01,2013-02-25 08:28:00,
2013-02-25 02:29:00,45.3,30.5,29.88,East,87,2.0,6.0,56,0.00,,---,0.00,VWS V14.01,2013-02-25 08:29:00,
2013-02-25 02:33:00,45.2,30.5,29.87,East,82,2.0,5.0,56,0.00,,---,0.00,VWS V14.01,2013-02-25 08:33:00,
2013-02-25 02:34:00,45.2,30.5,29.87,East,89,2.0,5.0,56,0.00,,---,0.00,VWS V14.01,2013-02-25 08:34:00,
2013-02-25 02:38:00,45.2,30.5,29.86,ESE,122,1.0,7.0,56,0.00,,---,0.00,VWS V14.01,2013-02-25 08:38:00,
2013-02-25 02:39:00,45.2,30.0,29.86,ESE,115,2.0,7.0,55,0.00,,---,0.00,VWS V14.01,2013-02-25 08:39:00,
2013-02-25 02:43:00,45.2,30.0,29.86,ENE,60,3.0,8.0,55,0.00,,---,0.00,VWS V14.01,2013-02-25 08:43:00,
2013-02-25 02:44:00,45.2,30.0,29.86,East,83,2.0,8.0,55,0.00,,---,0.00,VWS V14.01,2013-02-25 08:44:00,
2013-02-25 02:48:00,45.2,30.0,29.86,East,84,4.0,4.0,55,0.00,,---,0.00,VWS V14.01,2013-02-25 08:48:00,
2013-02-25 02:49:00,45.3,30.1,29.86,ESE,120,4.0,4.0,55,0.00,,---,0.00,VWS V14.01,2013-02-25 08:49:00,
2013-02-25 02:54:00,45.3,30.1,29.87,ENE,69,5.0,7.0,55,0.00,,---,0.00,VWS V14.01,2013-02-25 08:54:00,
2013-02-25 02:59:00,45.3,30.1,29.87,East,82,2.0,7.0,55,0.00,,---,0.00,VWS V14.01,2013-02-25 08:59:00,
2013-02-25 03:04:00,45.3,29.6,29.87,ENE,72,2.0,5.0,54,0.00,,---,0.00,VWS V14.01,2013-02-25 09:04:00,
2013-02-25 03:09:00,45.3,29.6,29.86,ENE,77,1.0,6.0,54,0.00,,---,0.00,VWS V14.01,2013-02-25 09:09:00,
2013-02-25 03:14:00,45.2,29.6,29.86,SE,127,1.0,9.0,54,0.00,,---,0.00,VWS V14.01,2013-02-25 09:14:00,
2013-02-25 03:19:00,45.1,29.9,29.86,NE,53,2.0,5.0,55,0.00,,---,0.00,VWS V14.01,2013-02-25 09:19:00,
2013-02-25 03:24:00,45.0,29.8,29.86,ENE,69,4.0,6.0,55,0.00,,---,0.00,VWS V14.01,2013-02-25 09:24:00,
2013-02-25 03:25:00,45.0,29.4,29.86,ENE,66,2.0,6.0,54,0.00,,---,0.00,VWS V14.01,2013-02-25 09:25:00,
2013-02-25 03:29:00,44.8,29.6,29.87,ENE,59,2.0,6.0,55,0.00,,---,0.00,VWS V14.01,2013-02-25 09:29:00,
2013-02-25 03:30:00,44.8,29.6,29.87,North,353,1.0,6.0,55,0.00,,---,0.00,VWS V14.01,2013-02-25 09:30:00,
2013-02-25 03:34:00,44.6,29.5,29.87,East,84,1.0,4.0,55,0.00,,---,0.00,VWS V14.01,2013-02-25 09:34:00,
2013-02-25 03:35:00,44.6,29.5,29.87,East,84,1.0,4.0,55,0.00,,---,0.00,VWS V14.01,2013-02-25 09:35:00,
2013-02-25 03:39:00,44.4,29.7,29.86,East,79,2.0,4.0,56,0.00,,---,0.00,VWS V14.01,2013-02-25 09:39:00,
2013-02-25 03:40:00,44.3,29.6,29.86,ENE,70,2.0,5.0,56,0.00,,---,0.00,VWS V14.01,2013-02-25 09:40:00,
2013-02-25 03:44:00,44.1,29.9,29.85,East,80,2.0,6.0,57,0.00,,---,0.00,VWS V14.01,2013-02-25 09:44:00,
2013-02-25 03:45:00,44.1,29.9,29.85,East,87,4.0,6.0,57,0.00,,---,0.00,VWS V14.01,2013-02-25 09:45:00,
2013-02-25 03:49:00,43.9,29.7,29.85,NE,56,3.0,5.0,57,0.00,,---,0.00,VWS V14.01,2013-02-25 09:49:00,
2013-02-25 03:50:00,43.9,29.7,29.85,ENE,74,3.0,5.0,57,0.00,,---,0.00,VWS V14.01,2013-02-25 09:50:00,
2013-02-25 03:54:00,43.8,29.6,29.84,East,80,3.0,8.0,57,0.00,,---,0.00,VWS V14.01,2013-02-25 09:54:00,
2013-02-25 03:55:00,43.8,29.6,29.84,ENE,78,2.0,8.0,57,0.00,,---,0.00,VWS V14.01,2013-02-25 09:55:00,
2013-02-25 04:00:00,43.7,29.5,29.85,East,80,3.0,8.0,57,0.00,,---,0.00,VWS V14.01,2013-02-25 10:00:00,
2013-02-25 04:04:00,43.6,29.4,29.85,East,89,0.0,4.0,57,0.00,,---,0.00,VWS V14.01,2013-02-25 10:04:00,
2013-02-25 04:05:00,43.6,29.4,29.85,ENE,72,4.0,4.0,57,0.00,,---,0.00,VWS V14.01,2013-02-25 10:05:00,
2013-02-25 04:09:00,43.6,29.4,29.85,ENE,67,1.0,8.0,57,0.00,,---,0.00,VWS V14.01,2013-02-25 10:09:00,
2013-02-25 04:10:00,43.6,29.4,29.85,East,82,3.0,8.0,57,0.00,,---,0.00,VWS V14.01,2013-02-25 10:10:00,
2013-02-25 04:14:00,43.5,29.3,29.85,East,92,2.0,8.0,57,0.00,,---,0.00,VWS V14.01,2013-02-25 10:14:00,
2013-02-25 04:15:00,43.5,29.3,29.85,East,84,1.0,8.0,57,0.00,,---,0.00,VWS V14.01,2013-02-25 10:15:00,
2013-02-25 04:16:00,43.5,29.3,29.85,ESE,105,2.0,4.0,57,0.00,,---,0.00,VWS V14.01,2013-02-25 10:16:00,
2013-02-25 04:20:00,43.4,29.2,29.85,East,87,3.0,7.0,57,0.00,,---,0.00,VWS V14.01,2013-02-25 10:20:00,
2013-02-25 04:21:00,43.4,29.2,29.85,ENE,77,2.0,7.0,57,0.00,,---,0.00,VWS V14.01,2013-02-25 10:21:00,
2013-02-25 04:25:00,43.3,29.1,29.85,East,92,2.0,8.0,57,0.00,,---,0.00,VWS V14.01,2013-02-25 10:25:00,
2013-02-25 04:26:00,43.3,29.1,29.85,East,87,2.0,8.0,57,0.00,,---,0.00,VWS V14.01,2013-02-25 10:26:00,
2013-02-25 04:30:00,43.3,29.1,29.85,East,79,2.0,8.0,57,0.00,,---,0.00,VWS V14.01,2013-02-25 10:30:00,
2013-02-25 04:31:00,43.2,29.0,29.85,East,89,3.0,6.0,57,0.00,,---,0.00,VWS V14.01,2013-02-25 10:31:00,
2013-02-25 04:35:00,43.1,28.9,29.84,ENE,78,4.0,9.0,57,0.00,,---,0.00,VWS V14.01,2013-02-25 10:35:00,
2013-02-25 04:36:00,43.1,28.9,29.85,East,90,3.0,9.0,57,0.00,,---,0.00,VWS V14.01,2013-02-25 10:36:00,
2013-02-25 04:40:00,43.1,29.3,29.85,NE,39,5.0,10.0,58,0.00,,---,0.00,VWS V14.01,2013-02-25 10:40:00,
2013-02-25 04:41:00,43.1,28.9,29.85,ESE,115,1.0,10.0,57,0.00,,---,0.00,VWS V14.01,2013-02-25 10:41:00,
2013-02-25 04:42:00,43.1,28.9,29.85,East,93,1.0,10.0,57,0.00,,---,0.00,VWS V14.01,2013-02-25 10:42:00,
2013-02-25 04:45:00,43.0,28.8,29.84,ENE,70,1.0,2.0,57,0.00,,---,0.00,VWS V14.01,2013-02-25 10:45:00,
2013-02-25 04:46:00,43.0,28.8,29.84,ENE,74,3.0,5.0,57,0.00,,---,0.00,VWS V14.01,2013-02-25 10:46:00,
2013-02-25 04:47:00,43.0,28.8,29.85,East,82,6.0,7.0,57,0.00,,---,0.00,VWS V14.01,2013-02-25 10:47:00,
2013-02-25 04:50:00,42.9,29.2,29.85,ESE,122,2.0,7.0,58,0.00,,---,0.00,VWS V14.01,2013-02-25 10:50:00,
2013-02-25 04:51:00,42.9,29.2,29.85,ESE,105,2.0,7.0,58,0.00,,---,0.00,VWS V14.01,2013-02-25 10:51:00,
2013-02-25 04:52:00,42.9,29.2,29.85,East,79,2.0,7.0,58,0.00,,---,0.00,VWS V14.01,2013-02-25 10:52:00,
2013-02-25 04:55:00,42.8,29.1,29.85,East,93,4.0,7.0,58,0.00,,---,0.00,VWS V14.01,2013-02-25 10:55:00,
2013-02-25 04:56:00,42.8,29.1,29.85,ENE,77,2.0,7.0,58,0.00,,---,0.00,VWS V14.01,2013-02-25 10:56:00,
2013-02-25 04:57:00,42.8,29.1,29.85,ENE,77,6.0,9.0,58,0.00,,---,0.00,VWS V14.01,2013-02-25 10:57:00,
2013-02-25 05:00:00,42.9,29.2,29.85,SE,124,4.0,6.0,58,0.00,,---,0.00,VWS V14.01,2013-02-25 11:00:00,
2013-02-25 05:01:00,42.9,29.2,29.85,ENE,70,4.0,6.0,58,0.00,,---,0.00,VWS V14.01,2013-02-25 11:01:00,
2013-02-25 05:02:00,42.9,29.2,29.85,NE,55,7.0,7.0,58,0.00,,---,0.00,VWS V14.01,2013-02-25 11:02:00,
2013-02-25 05:06:00,42.9,29.2,29.85,ESE,119,3.0,6.0,58,0.00,,---,0.00,VWS V14.01,2013-02-25 11:06:00,
2013-02-25 05:07:00,42.9,28.7,29.85,East,91,0.0,6.0,57,0.00,,---,0.00,VWS V14.01,2013-02-25 11:07:00,
2013-02-25 05:11:00,42.9,28.7,29.85,ENE,69,6.0,10.0,57,0.00,,---,0.00,VWS V14.01,2013-02-25 11:11:00,
2013-02-25 05:12:00,42.9,28.7,29.85,East,79,4.0,10.0,57,0.00,,---,0.00,VWS V14.01,2013-02-25 11:12:00,
2013-02-25 05:16:00,43.0,28.8,29.84,East,86,3.0,6.0,57,0.00,,---,0.00,VWS V14.01,2013-02-25 11:16:00,
2013-02-25 05:17:00,43.0,28.8,29.84,East,93,5.0,6.0,57,0.00,,---,0.00,VWS V14.01,2013-02-25 11:17:00,
2013-02-25 05:21:00,42.9,28.7,29.84,ENE,60,5.0,10.0,57,0.00,,---,0.00,VWS V14.01,2013-02-25 11:21:00,
2013-02-25 05:22:00,42.9,28.7,29.84,ESE,118,1.0,10.0,57,0.00,,---,0.00,VWS V14.01,2013-02-25 11:22:00,
2013-02-25 05:26:00,42.9,28.7,29.84,ENE,63,3.0,10.0,57,0.00,,---,0.00,VWS V14.01,2013-02-25 11:26:00,
2013-02-25 05:27:00,42.8,28.6,29.84,ENE,77,7.0,10.0,57,0.00,,---,0.00,VWS V14.01,2013-02-25 11:27:00,
2013-02-25 05:31:00,42.9,28.7,29.84,East,82,2.0,4.0,57,0.00,,---,0.00,VWS V14.01,2013-02-25 11:31:00,
2013-02-25 05:32:00,42.9,28.7,29.84,East,79,4.0,4.0,57,0.00,,---,0.00,VWS V14.01,2013-02-25 11:32:00,
2013-02-25 05:36:00,42.9,28.7,29.84,East,96,4.0,8.0,57,0.00,,---,0.00,VWS V14.01,2013-02-25 11:36:00,
2013-02-25 05:37:00,42.8,28.6,29.84,East,82,3.0,8.0,57,0.00,,---,0.00,VWS V14.01,2013-02-25 11:37:00,
2013-02-25 05:38:00,42.8,28.6,29.84,ENE,62,3.0,8.0,57,0.00,,---,0.00,VWS V14.01,2013-02-25 11:38:00,
2013-02-25 05:41:00,42.7,28.5,29.84,East,82,2.0,8.0,57,0.00,,---,0.00,VWS V14.01,2013-02-25 11:41:00,
2013-02-25 05:42:00,42.7,28.5,29.84,East,84,3.0,8.0,57,0.00,,---,0.00,VWS V14.01,2013-02-25 11:42:00,
2013-02-25 05:43:00,42.7,29.0,29.84,East,82,4.0,8.0,58,0.00,,---,0.00,VWS V14.01,2013-02-25 11:43:00,
2013-02-25 05:47:00,42.6,28.9,29.84,East,84,2.0,6.0,58,0.00,,---,0.00,VWS V14.01,2013-02-25 11:47:00,
2013-02-25 05:48:00,42.6,28.9,29.84,East,86,2.0,6.0,58,0.00,,---,0.00,VWS V14.01,2013-02-25 11:48:00,
2013-02-25 05:52:00,42.5,28.8,29.84,SSE,149,1.0,7.0,58,0.00,,---,0.00,VWS V14.01,2013-02-25 11:52:00,
2013-02-25 05:53:00,42.5,28.8,29.84,ESE,105,2.0,7.0,58,0.00,,---,0.00,VWS V14.01,2013-02-25 11:53:00,
2013-02-25 05:57:00,42.4,28.7,29.84,East,79,3.0,7.0,58,0.00,,---,0.00,VWS V14.01,2013-02-25 11:57:00,
2013-02-25 05:58:00,42.4,28.7,29.84,ENE,71,3.0,7.0,58,0.00,,---,0.00,VWS V14.01,2013-02-25 11:58:00,
2013-02-25 06:02:00,42.4,28.7,29.84,ENE,77,2.0,3.0,58,0.00,,---,0.00,VWS V14.01,2013-02-25 12:02:00,
2013-02-25 06:03:00,42.4,28.7,29.84,ESE,111,2.0,3.0,58,0.00,,---,0.00,VWS V14.01,2013-02-25 12:03:00,
2013-02-25 06:07:00,42.4,28.7,29.84,East,83,1.0,6.0,58,0.00,,---,0.00,VWS V14.01,2013-02-25 12:07:00,
2013-02-25 06:08:00,42.4,29.1,29.84,East,92,1.0,6.0,59,0.00,,---,0.00,VWS V14.01,2013-02-25 12:08:00,
2013-02-25 06:12:00,42.4,29.1,29.84,ESE,103,1.0,6.0,59,0.00,,---,0.00,VWS V14.01,2013-02-25 12:12:00,
2013-02-25 06:13:00,42.3,29.0,29.84,SE,129,2.0,6.0,59,0.00,,---,0.00,VWS V14.01,2013-02-25 12:13:00,
2013-02-25 06:14:00,42.3,29.0,29.84,SE,129,1.0,6.0,59,0.00,,---,0.00,VWS V14.01,2013-02-25 12:14:00,
2013-02-25 06:17:00,42.2,28.9,29.84,East,91,1.0,3.0,59,0.00,,---,0.00,VWS V14.01,2013-02-25 12:17:00,
2013-02-25 06:18:00,42.2,28.9,29.84,East,86,4.0,4.0,59,0.00,,---,0.00,VWS V14.01,2013-02-25 12:18:00,
2013-02-25 06:19:00,42.2,28.9,29.85,ENE,67,2.0,4.0,59,0.00,,---,0.00,VWS V14.01,2013-02-25 12:19:00,
2013-02-25 06:22:00,42.2,28.9,29.84,NE,53,2.0,8.0,59,0.00,,---,0.00,VWS V14.01,2013-02-25 12:22:00,
2013-02-25 06:23:00,42.2,28.9,29.84,ENE,70,3.0,8.0,59,0.00,,---,0.00,VWS V14.01,2013-02-25 12:23:00,
2013-02-25 06:24:00,42.2,28.9,29.84,East,93,4.0,8.0,59,0.00,,---,0.00,VWS V14.01,2013-02-25 12:24:00,
2013-02-25 06:27:00,42.4,29.1,29.84,East,82,5.0,8.0,59,0.00,,---,0.00,VWS V14.01,2013-02-25 12:27:00,
2013-02-25 06:28:00,42.4,29.1,29.84,East,93,4.0,8.0,59,0.00,,---,0.00,VWS V14.01,2013-02-25 12:28:00,
2013-02-25 06:29:00,42.4,29.1,29.84,NE,55,4.0,8.0,59,0.00,,---,0.00,VWS V14.01,2013-02-25 12:29:00,
2013-02-25 06:32:00,42.4,28.7,29.85,East,98,3.0,7.0,58,0.00,,---,0.00,VWS V14.01,2013-02-25 12:32:00,
2013-02-25 06:33:00,42.4,28.7,29.85,ENE,73,6.0,7.0,58,0.00,,---,0.00,VWS V14.01,2013-02-25 12:33:00,
2013-02-25 06:34:00,42.5,28.8,29.85,SE,127,1.0,7.0,58,0.00,,---,0.00,VWS V14.01,2013-02-25 12:34:00,
2013-02-25 06:38:00,42.5,28.8,29.84,East,96,5.0,8.0,58,0.00,,---,0.00,VWS V14.01,2013-02-25 12:38:00,
2013-02-25 06:39:00,42.6,28.9,29.84,East,89,5.0,8.0,58,0.00,,---,0.00,VWS V14.01,2013-02-25 12:39:00,
2013-02-25 06:43:00,42.6,28.9,29.84,ENE,65,2.0,9.0,58,0.00,,---,0.00,VWS V14.01,2013-02-25 12:43:00,
2013-02-25 06:44:00,42.5,28.8,29.84,East,80,3.0,9.0,58,0.00,,---,0.00,VWS V14.01,2013-02-25 12:44:00,
2013-02-25 06:45:00,42.5,28.8,29.84,East,83,4.0,9.0,58,0.00,,---,0.00,VWS V14.01,2013-02-25 12:45:00,
2013-02-25 06:48:00,42.4,29.1,29.84,ENE,67,1.0,8.0,59,0.00,,---,0.00,VWS V14.01,2013-02-25 12:48:00,
2013-02-25 06:49:00,42.4,29.1,29.84,NNE,24,3.0,8.0,59,0.00,,---,0.00,VWS V14.01,2013-02-25 12:49:00,
2013-02-25 06:50:00,42.4,29.1,29.84,East,79,4.0,8.0,59,0.00,,---,0.00,VWS V14.01,2013-02-25 12:50:00,
2013-02-25 06:51:00,42.5,29.2,29.84,East,83,5.0,8.0,59,0.00,,---,0.00,VWS V14.01,2013-02-25 12:51:00,
2013-02-25 06:53:00,42.5,29.2,29.84,East,79,4.0,8.0,59,0.00,,---,0.00,VWS V14.01,2013-02-25 12:53:00,
2013-02-25 06:55:00,42.5,29.2,29.84,ESE,110,6.0,8.0,59,0.00,,---,0.00,VWS V14.01,2013-02-25 12:55:00,
2013-02-25 06:58:00,42.5,29.2,29.84,SE,125,1.0,8.0,59,0.00,,---,0.00,VWS V14.01,2013-02-25 12:58:00,
2013-02-25 07:00:00,42.5,29.2,29.84,SE,135,2.0,8.0,59,0.00,,---,0.00,VWS V14.01,2013-02-25 13:00:00,
2013-02-25 07:03:00,42.5,29.2,29.84,ESE,112,5.0,5.0,59,0.00,,---,0.00,VWS V14.01,2013-02-25 13:03:00,
2013-02-25 07:05:00,42.6,29.3,29.84,ESE,118,1.0,5.0,59,0.00,,---,0.00,VWS V14.01,2013-02-25 13:05:00,
2013-02-25 07:08:00,42.7,29.4,29.83,ESE,116,1.0,5.0,59,0.00,,---,0.00,VWS V14.01,2013-02-25 13:08:00,
2013-02-25 07:10:00,42.8,29.5,29.83,ESE,123,2.0,6.0,59,0.00,,---,0.00,VWS V14.01,2013-02-25 13:10:00,
2013-02-25 07:11:00,42.8,29.5,29.83,East,97,2.0,6.0,59,0.00,,---,0.00,VWS V14.01,2013-02-25 13:11:00,
2013-02-25 07:13:00,42.8,29.5,29.82,ESE,120,2.0,6.0,59,0.00,,---,0.00,VWS V14.01,2013-02-25 13:13:00,
2013-02-25 07:16:00,42.7,29.4,29.82,ENE,69,3.0,6.0,59,0.00,,---,0.00,VWS V14.01,2013-02-25 13:16:00,
2013-02-25 07:18:00,42.7,29.4,29.82,East,87,5.0,7.0,59,0.00,,---,0.00,VWS V14.01,2013-02-25 13:18:00,
2013-02-25 07:21:00,42.7,29.4,29.82,SE,135,2.0,7.0,59,0.00,,---,0.00,VWS V14.01,2013-02-25 13:21:00,
2013-02-25 07:23:00,42.7,29.4,29.82,East,94,5.0,7.0,59,0.00,,---,0.00,VWS V14.01,2013-02-25 13:23:00,
2013-02-25 07:24:00,42.8,29.5,29.82,East,89,4.0,7.0,59,0.00,,---,0.00,VWS V14.01,2013-02-25 13:24:00,
2013-02-25 07:26:00,42.8,29.5,29.82,ESE,118,3.0,7.0,59,0.00,,---,0.00,VWS V14.01,2013-02-25 13:26:00,
2013-02-25 07:27:00,42.8,29.5,29.82,ENE,70,10.0,10.0,59,0.00,,---,0.00,VWS V14.01,2013-02-25 13:27:00,
2013-02-25 07:28:00,42.8,29.5,29.82,SE,135,1.0,10.0,59,0.00,,---,0.00,VWS V14.01,2013-02-25 13:28:00,
2013-02-25 07:29:00,42.8,29.5,29.82,SE,135,1.0,10.0,59,0.00,,---,0.00,VWS V14.01,2013-02-25 13:29:00,
2013-02-25 07:31:00,42.9,29.6,29.82,ESE,108,5.0,5.0,59,0.00,,---,0.00,VWS V14.01,2013-02-25 13:31:00,
2013-02-25 07:32:00,42.9,29.6,29.82,NNE,26,5.0,5.0,59,0.00,,---,0.00,VWS V14.01,2013-02-25 13:32:00,
2013-02-25 07:33:00,42.9,29.6,29.82,ESE,110,4.0,5.0,59,0.00,,---,0.00,VWS V14.01,2013-02-25 13:33:00,
2013-02-25 07:34:00,43.0,29.7,29.82,SE,125,2.0,5.0,59,0.00,,---,0.00,VWS V14.01,2013-02-25 13:34:00,
2013-02-25 07:37:00,43.1,29.8,29.82,ESE,105,1.0,5.0,59,0.00,,---,0.00,VWS V14.01,2013-02-25 13:37:00,
2013-02-25 07:38:00,43.2,29.9,29.82,ESE,108,1.0,5.0,59,0.00,,---,0.00,VWS V14.01,2013-02-25 13:38:00,
2013-02-25 07:39:00,43.2,29.9,29.82,ESE,122,1.0,5.0,59,0.00,,---,0.00,VWS V14.01,2013-02-25 13:39:00,
2013-02-25 07:42:00,43.4,30.0,29.82,ESE,122,3.0,6.0,59,0.00,,---,0.00,VWS V14.01,2013-02-25 13:42:00,
2013-02-25 07:43:00,43.5,30.1,29.82,ESE,122,2.0,6.0,59,0.00,,---,0.00,VWS V14.01,2013-02-25 13:43:00,
2013-02-25 07:44:00,43.6,30.2,29.82,SE,141,4.0,6.0,59,0.00,,---,0.00,VWS V14.01,2013-02-25 13:44:00,
2013-02-25 07:45:00,43.6,30.2,29.82,ESE,116,1.0,6.0,59,0.00,,---,0.00,VWS V14.01,2013-02-25 13:45:00,
2013-02-25 07:47:00,43.9,30.1,29.82,ESE,119,2.0,4.0,58,0.00,,---,0.00,VWS V14.01,2013-02-25 13:47:00,
2013-02-25 07:48:00,43.9,30.1,29.82,East,82,3.0,4.0,58,0.00,,---,0.00,VWS V14.01,2013-02-25 13:48:00,
2013-02-25 07:49:00,44.0,30.2,29.82,SE,132,0.0,4.0,58,0.00,,---,0.00,VWS V14.01,2013-02-25 13:49:00,
2013-02-25 07:50:00,44.0,30.6,29.82,SSE,163,2.0,4.0,59,0.00,,---,0.00,VWS V14.01,2013-02-25 13:50:00,
2013-02-25 07:52:00,44.2,30.4,29.82,SE,127,2.0,4.0,58,0.00,,---,0.00,VWS V14.01,2013-02-25 13:52:00,
2013-02-25 07:53:00,44.3,30.5,29.82,SE,129,2.0,4.0,58,0.00,,---,0.00,VWS V14.01,2013-02-25 13:53:00,
2013-02-25 07:54:00,44.4,30.6,29.82,SE,129,1.0,4.0,58,0.00,,---,0.00,VWS V14.01,2013-02-25 13:54:00,
2013-02-25 07:55:00,44.5,30.2,29.82,ESE,107,1.0,4.0,57,0.00,,---,0.00,VWS V14.01,2013-02-25 13:55:00,
2013-02-25 07:57:00,44.7,30.4,29.83,East,82,2.0,4.0,57,0.00,,---,0.00,VWS V14.01,2013-02-25 13:57:00,
2013-02-25 07:58:00,44.8,30.5,29.83,East,82,0.0,4.0,57,0.00,,---,0.00,VWS V14.01,2013-02-25 13:58:00,
2013-02-25 07:59:00,44.9,30.6,29.83,SSW,209,1.0,4.0,57,0.00,,---,0.00,VWS V14.01,2013-02-25 13:59:00,
2013-02-25 08:01:00,45.0,30.3,29.83,East,87,3.0,4.0,56,0.00,,---,0.00,VWS V14.01,2013-02-25 14:01:00,
2013-02-25 08:02:00,45.1,30.4,29.83,SE,134,1.0,4.0,56,0.00,,---,0.00,VWS V14.01,2013-02-25 14:02:00,
2013-02-25 08:04:00,45.2,30.5,29.83,East,79,4.0,4.0,56,0.00,,---,0.00,VWS V14.01,2013-02-25 14:04:00,
2013-02-25 08:05:00,45.3,30.5,29.83,ESE,119,1.0,4.0,56,0.00,,---,0.00,VWS V14.01,2013-02-25 14:05:00,
2013-02-25 08:06:00,45.3,30.5,29.83,ESE,120,1.0,4.0,56,0.00,,---,0.00,VWS V14.01,2013-02-25 14:06:00,
2013-02-25 08:07:00,45.4,30.6,29.83,SE,138,1.0,4.0,56,0.00,,---,0.00,VWS V14.01,2013-02-25 14:07:00,
2013-02-25 08:09:00,45.6,31.3,29.83,ESE,103,0.0,4.0,57,0.00,,---,0.00,VWS V14.01,2013-02-25 14:09:00,
2013-02-25 08:10:00,45.7,30.9,29.83,ENE,59,4.0,4.0,56,0.00,,---,0.00,VWS V14.01,2013-02-25 14:10:00,
2013-02-25 08:11:00,45.8,31.0,29.83,NE,37,1.0,4.0,56,0.00,,---,0.00,VWS V14.01,2013-02-25 14:11:00,
2013-02-25 08:13:00,46.0,31.2,29.83,East,86,1.0,4.0,56,0.00,,---,0.00,VWS V14.01,2013-02-25 14:13:00,
2013-02-25 08:15:00,46.1,31.3,29.83,SE,130,4.0,7.0,56,0.00,,---,0.00,VWS V14.01,2013-02-25 14:15:00,
2013-02-25 08:16:00,46.2,30.9,29.83,ESE,103,3.0,4.0,55,0.00,,---,0.00,VWS V14.01,2013-02-25 14:16:00,
2013-02-25 08:18:00,46.4,30.7,29.83,ESE,119,4.0,6.0,54,0.00,,---,0.00,VWS V14.01,2013-02-25 14:18:00,
2013-02-25 08:20:00,46.5,30.8,29.83,SE,138,1.0,6.0,54,0.00,,---,0.00,VWS V14.01,2013-02-25 14:20:00,
2013-02-25 08:21:00,46.6,30.9,29.83,SE,137,1.0,6.0,54,0.00,,---,0.00,VWS V14.01,2013-02-25 14:21:00,
2013-02-25 08:23:00,46.8,31.0,29.83,SE,130,1.0,6.0,54,0.00,,---,0.00,VWS V14.01,2013-02-25 14:23:00,
2013-02-25 08:25:00,46.9,31.1,29.83,ESE,121,3.0,6.0,54,0.00,,---,0.00,VWS V14.01,2013-02-25 14:25:00,
2013-02-25 08:26:00,47.0,31.2,29.83,SE,128,2.0,6.0,54,0.00,,---,0.00,VWS V14.01,2013-02-25 14:26:00,
2013-02-25 08:27:00,47.1,30.9,29.83,ESE,119,3.0,6.0,53,0.00,,---,0.00,VWS V14.01,2013-02-25 14:27:00,
2013-02-25 08:28:00,47.2,31.0,29.83,East,84,2.0,6.0,53,0.00,,---,0.00,VWS V14.01,2013-02-25 14:28:00,
2013-02-25 08:30:00,47.3,31.0,29.83,ESE,121,2.0,2.0,53,0.00,,---,0.00,VWS V14.01,2013-02-25 14:30:00,
2013-02-25 08:31:00,47.4,31.1,29.83,ENE,62,2.0,4.0,53,0.00,,---,0.00,VWS V14.01,2013-02-25 14:31:00,
2013-02-25 08:32:00,47.5,31.7,29.83,SE,128,2.0,4.0,54,0.00,,---,0.00,VWS V14.01,2013-02-25 14:32:00,
2013-02-25 08:34:00,47.6,31.3,29.83,ESE,116,1.0,4.0,53,0.00,,---,0.00,VWS V14.01,2013-02-25 14:34:00,
2013-02-25 08:35:00,47.8,31.0,29.83,ESE,114,5.0,5.0,52,0.00,,---,0.00,VWS V14.01,2013-02-25 14:35:00,
2013-02-25 08:36:00,47.8,31.0,29.83,SE,124,6.0,6.0,52,0.00,,---,0.00,VWS V14.01,2013-02-25 14:36:00,
2013-02-25 08:37:00,47.9,31.1,29.83,SE,125,3.0,6.0,52,0.00,,---,0.00,VWS V14.01,2013-02-25 14:37:00,
2013-02-25 08:39:00,48.1,31.3,29.82,East,90,2.0,6.0,52,0.00,,---,0.00,VWS V14.01,2013-02-25 14:39:00,
2013-02-25 08:41:00,48.2,31.4,29.82,SE,127,1.0,6.0,52,0.00,,---,0.00,VWS V14.01,2013-02-25 14:41:00,
2013-02-25 08:42:00,48.3,31.5,29.82,SE,144,1.0,6.0,52,0.00,,---,0.00,VWS V14.01,2013-02-25 14:42:00,
2013-02-25 08:44:00,48.5,31.7,29.82,SE,129,1.0,6.0,52,0.00,,---,0.00,VWS V14.01,2013-02-25 14:44:00,
2013-02-25 08:46:00,48.7,31.9,29.82,East,98,3.0,4.0,52,0.00,,---,0.00,VWS V14.01,2013-02-25 14:46:00,
2013-02-25 08:47:00,48.9,32.1,29.82,NE,52,2.0,7.0,52,0.00,,---,0.00,VWS V14.01,2013-02-25 14:47:00,
2013-02-25 08:49:00,49.1,31.8,29.82,SE,125,5.0,7.0,51,0.00,,---,0.00,VWS V14.01,2013-02-25 14:49:00,
2013-02-25 08:51:00,49.2,31.9,29.82,SE,125,4.0,7.0,51,0.00,,---,0.00,VWS V14.01,2013-02-25 14:51:00,
2013-02-25 08:52:00,49.3,31.5,29.82,ESE,112,3.0,7.0,50,0.00,,---,0.00,VWS V14.01,2013-02-25 14:52:00,
2013-02-25 08:54:00,49.3,31.5,29.83,ESE,112,1.0,7.0,50,0.00,,---,0.00,VWS V14.01,2013-02-25 14:54:00,
2013-02-25 08:56:00,49.4,31.6,29.83,SE,127,2.0,7.0,50,0.00,,---,0.00,VWS V14.01,2013-02-25 14:56:00,
2013-02-25 08:57:00,49.5,31.6,29.83,ESE,112,2.0,7.0,50,0.00,,---,0.00,VWS V14.01,2013-02-25 14:57:00,
2013-02-25 08:59:00,49.5,31.6,29.83,SE,130,1.0,7.0,50,0.00,,---,0.00,VWS V14.01,2013-02-25 14:59:00,
2013-02-25 09:01:00,49.6,32.2,29.83,SE,131,1.0,1.0,51,0.00,,---,0.00,VWS V14.01,2013-02-25 15:01:00,
2013-02-25 09:02:00,49.7,32.3,29.83,East,93,2.0,5.0,51,0.00,,---,0.00,VWS V14.01,2013-02-25 15:02:00,
2013-02-25 09:05:00,49.8,32.4,29.83,East,85,1.0,5.0,51,0.00,,---,0.00,VWS V14.01,2013-02-25 15:05:00,
2013-02-25 09:06:00,49.9,32.5,29.83,SE,138,1.0,5.0,51,0.00,,---,0.00,VWS V14.01,2013-02-25 15:06:00,
2013-02-25 09:07:00,49.9,32.5,29.83,SE,146,2.0,5.0,51,0.00,,---,0.00,VWS V14.01,2013-02-25 15:07:00,
2013-02-25 09:10:00,50.1,32.7,29.83,SE,134,1.0,5.0,51,0.00,,---,0.00,VWS V14.01,2013-02-25 15:10:00,
2013-02-25 09:11:00,50.2,32.8,29.83,ENE,65,4.0,5.0,51,0.00,,---,0.00,VWS V14.01,2013-02-25 15:11:00,
2013-02-25 09:12:00,50.2,32.8,29.83,SE,143,1.0,5.0,51,0.00,,---,0.00,VWS V14.01,2013-02-25 15:12:00,
2013-02-25 09:15:00,50.4,33.0,29.82,East,98,3.0,5.0,51,0.00,,---,0.00,VWS V14.01,2013-02-25 15:15:00,
2013-02-25 09:17:00,50.5,33.1,29.82,SE,128,1.0,5.0,51,0.00,,---,0.00,VWS V14.01,2013-02-25 15:17:00,
2013-02-25 09:20:00,50.8,33.3,29.82,NE,56,1.0,5.0,51,0.00,,---,0.00,VWS V14.01,2013-02-25 15:20:00,
2013-02-25 09:22:00,51.0,33.5,29.81,ENE,74,3.0,5.0,51,0.00,,---,0.00,VWS V14.01,2013-02-25 15:22:00,
2013-02-25 09:23:00,51.0,33.5,29.81,East,94,5.0,5.0,51,0.00,,---,0.00,VWS V14.01,2013-02-25 15:23:00,
2013-02-25 09:25:00,51.2,33.7,29.81,ESE,117,3.0,6.0,51,0.00,,---,0.00,VWS V14.01,2013-02-25 15:25:00,
2013-02-25 09:27:00,51.3,33.8,29.81,ESE,120,3.0,6.0,51,0.00,,---,0.00,VWS V14.01,2013-02-25 15:27:00,
2013-02-25 09:28:00,51.4,33.9,29.81,ESE,111,5.0,7.0,51,0.00,,---,0.00,VWS V14.01,2013-02-25 15:28:00,
2013-02-25 09:30:00,51.5,34.0,29.81,SE,131,1.0,7.0,51,0.00,,---,0.00,VWS V14.01,2013-02-25 15:30:00,
2013-02-25 09:32:00,51.7,34.2,29.81,ESE,118,3.0,7.0,51,0.00,,---,0.00,VWS V14.01,2013-02-25 15:32:00,
2013-02-25 09:33:00,51.7,33.7,29.81,SE,124,1.0,7.0,50,0.00,,---,0.00,VWS V14.01,2013-02-25 15:33:00,
2013-02-25 09:35:00,52.1,34.0,29.81,ESE,115,5.0,7.0,50,0.00,,---,0.00,VWS V14.01,2013-02-25 15:35:00,
2013-02-25 09:37:00,52.5,34.4,29.81,SE,124,1.0,7.0,50,0.00,,---,0.00,VWS V14.01,2013-02-25 15:37:00,
2013-02-25 09:38:00,52.6,35.0,29.81,ESE,121,2.0,7.0,51,0.00,,---,0.00,VWS V14.01,2013-02-25 15:38:00,
2013-02-25 09:40:00,53.0,34.9,29.81,East,100,2.0,7.0,50,0.00,,---,0.00,VWS V14.01,2013-02-25 15:40:00,
2013-02-25 09:43:00,53.4,35.2,29.81,East,80,3.0,7.0,50,0.00,,---,0.00,VWS V14.01,2013-02-25 15:43:00,
2013-02-25 09:45:00,53.8,35.1,29.81,East,82,3.0,3.0,49,0.00,,---,0.00,VWS V14.01,2013-02-25 15:45:00,
2013-02-25 09:48:00,53.9,35.7,29.81,ESE,113,6.0,10.0,50,0.00,,---,0.00,VWS V14.01,2013-02-25 15:48:00,
2013-02-25 09:50:00,54.0,35.3,29.80,NNE,13,2.0,10.0,49,0.00,,---,0.00,VWS V14.01,2013-02-25 15:50:00,
2013-02-25 09:53:00,54.2,35.5,29.80,ESE,103,3.0,10.0,49,0.00,,---,0.00,VWS V14.01,2013-02-25 15:53:00,
2013-02-25 09:56:00,54.5,36.3,29.80,SE,124,2.0,10.0,50,0.00,,---,0.00,VWS V14.01,2013-02-25 15:56:00,
2013-02-25 09:58:00,54.6,35.8,29.80,ESE,119,2.0,10.0,49,0.00,,---,0.00,VWS V14.01,2013-02-25 15:58:00,
2013-02-25 10:00:00,54.8,36.5,29.80,ESE,111,2.0,4.0,50,0.00,,---,0.00,VWS V14.01,2013-02-25 16:00:00,
2013-02-25 10:03:00,55.0,36.7,29.80,East,82,1.0,7.0,50,0.00,,---,0.00,VWS V14.01,2013-02-25 16:03:00,
2013-02-25 10:06:00,55.2,36.9,29.80,ESE,114,3.0,8.0,50,0.00,,---,0.00,VWS V14.01,2013-02-25 16:06:00,
2013-02-25 10:08:00,55.4,37.1,29.80,ESE,112,3.0,8.0,50,0.00,,---,0.00,VWS V14.01,2013-02-25 16:08:00,
2013-02-25 10:09:00,55.4,37.1,29.80,NE,46,2.0,8.0,50,0.00,,---,0.00,VWS V14.01,2013-02-25 16:09:00,
2013-02-25 10:11:00,55.5,37.2,29.80,SSW,195,2.0,8.0,50,0.00,,---,0.00,VWS V14.01,2013-02-25 16:11:00,
2013-02-25 10:13:00,55.7,37.4,29.80,SE,143,1.0,8.0,50,0.00,,---,0.00,VWS V14.01,2013-02-25 16:13:00,
2013-02-25 10:14:00,55.7,37.4,29.80,East,96,2.0,8.0,50,0.00,,---,0.00,VWS V14.01,2013-02-25 16:14:00,
2013-02-25 10:16:00,55.9,38.0,29.80,SE,140,2.0,2.0,51,0.00,,---,0.00,VWS V14.01,2013-02-25 16:16:00,
2013-02-25 10:18:00,56.2,37.8,29.80,NE,35,1.0,4.0,50,0.00,,---,0.00,VWS V14.01,2013-02-25 16:18:00,
2013-02-25 10:19:00,56.2,37.8,29.80,NE,45,1.0,4.0,50,0.00,,---,0.00,VWS V14.01,2013-02-25 16:19:00,
2013-02-25 10:21:00,56.3,37.4,29.80,SE,132,1.0,4.0,49,0.00,,---,0.00,VWS V14.01,2013-02-25 16:21:00,
2013-02-25 10:23:00,56.5,38.1,29.80,SE,125,2.0,6.0,50,0.00,,---,0.00,VWS V14.01,2013-02-25 16:23:00,
2013-02-25 10:24:00,56.5,38.1,29.80,SW,219,5.0,7.0,50,0.00,,---,0.00,VWS V14.01,2013-02-25 16:24:00,
2013-02-25 10:26:00,56.4,37.5,29.80,SE,144,1.0,7.0,49,0.00,,---,0.00,VWS V14.01,2013-02-25 16:26:00,
2013-02-25 10:28:00,56.4,38.0,29.80,SW,235,3.0,10.0,50,0.00,,---,0.00,VWS V14.01,2013-02-25 16:28:00,
2013-02-25 10:29:00,56.4,38.0,29.80,ESE,118,3.0,10.0,50,0.00,,---,0.00,VWS V14.01,2013-02-25 16:29:00,
2013-02-25 10:31:00,56.4,38.0,29.80,SE,129,1.0,4.0,50,0.00,,---,0.00,VWS V14.01,2013-02-25 16:31:00,
2013-02-25 10:34:00,56.5,38.1,29.80,SSE,157,0.0,5.0,50,0.00,,---,0.00,VWS V14.01,2013-02-25 16:34:00,
2013-02-25 10:36:00,56.6,38.2,29.79,South,172,2.0,8.0,50,0.00,,---,0.00,VWS V14.01,2013-02-25 16:36:00,
2013-02-25 10:39:00,56.7,38.3,29.79,North,359,3.0,8.0,50,0.00,,---,0.00,VWS V14.01,2013-02-25 16:39:00,
2013-02-25 10:41:00,56.9,39.0,29.79,SE,145,2.0,8.0,51,0.00,,---,0.00,VWS V14.01,2013-02-25 16:41:00,
2013-02-25 10:44:00,57.0,38.6,29.79,ESE,119,5.0,8.0,50,0.00,,---,0.00,VWS V14.01,2013-02-25 16:44:00,
2013-02-25 10:46:00,56.8,37.9,29.79,SE,124,4.0,6.0,49,0.00,,---,0.00,VWS V14.01,2013-02-25 16:46:00,
2013-02-25 10:49:00,56.6,38.2,29.79,ESE,110,2.0,7.0,50,0.00,,---,0.00,VWS V14.01,2013-02-25 16:49:00,
2013-02-25 10:51:00,56.5,38.6,29.78,SE,136,2.0,7.0,51,0.00,,---,0.00,VWS V14.01,2013-02-25 16:51:00,
2013-02-25 10:54:00,56.3,38.9,29.78,East,87,1.0,7.0,52,0.00,,---,0.00,VWS V14.01,2013-02-25 16:54:00,
2013-02-25 10:56:00,56.3,38.9,29.78,SE,145,1.0,7.0,52,0.00,,---,0.00,VWS V14.01,2013-02-25 16:56:00,
2013-02-25 10:59:00,56.2,38.8,29.78,ESE,115,3.0,7.0,52,0.00,,---,0.00,VWS V14.01,2013-02-25 16:59:00,
2013-02-25 11:00:00,56.2,38.8,29.77,ESE,118,2.0,7.0,52,0.00,,---,0.00,VWS V14.01,2013-02-25 17:00:00,
2013-02-25 11:01:00,56.2,38.8,29.77,ESE,110,6.0,6.0,52,0.00,,---,0.00,VWS V14.01,2013-02-25 17:01:00,
2013-02-25 11:04:00,56.2,39.3,29.78,SE,141,0.0,8.0,53,0.00,,---,0.00,VWS V14.01,2013-02-25 17:04:00,
2013-02-25 11:05:00,56.2,39.3,29.77,SSE,167,1.0,8.0,53,0.00,,---,0.00,VWS V14.01,2013-02-25 17:05:00,
2013-02-25 11:07:00,56.4,39.5,29.77,SE,131,1.0,8.0,53,0.00,,---,0.00,VWS V14.01,2013-02-25 17:07:00,
2013-02-25 11:09:00,56.5,39.6,29.77,East,93,5.0,9.0,53,0.00,,---,0.00,VWS V14.01,2013-02-25 17:09:00,
2013-02-25 11:10:00,56.4,39.0,29.77,ESE,108,3.0,9.0,52,0.00,,---,0.00,VWS V14.01,2013-02-25 17:10:00,
2013-02-25 11:12:00,56.4,39.5,29.76,ESE,113,1.0,9.0,53,0.00,,---,0.00,VWS V14.01,2013-02-25 17:12:00,
2013-02-25 11:14:00,56.5,40.1,29.76,SE,125,3.0,9.0,54,0.00,,---,0.00,VWS V14.01,2013-02-25 17:14:00,
2013-02-25 11:15:00,56.5,39.6,29.76,SE,143,2.0,9.0,53,0.00,,---,0.00,VWS V14.01,2013-02-25 17:15:00,
2013-02-25 11:17:00,56.4,39.5,29.76,SE,124,3.0,6.0,53,0.00,,---,0.00,VWS V14.01,2013-02-25 17:17:00,
2013-02-25 11:19:00,56.3,39.4,29.76,ESE,115,2.0,6.0,53,0.00,,---,0.00,VWS V14.01,2013-02-25 17:19:00,
2013-02-25 11:20:00,56.3,39.9,29.77,SE,132,1.0,6.0,54,0.00,,---,0.00,VWS V14.01,2013-02-25 17:20:00,
2013-02-25 11:22:00,56.3,39.9,29.76,ESE,119,3.0,6.0,54,0.00,,---,0.00,VWS V14.01,2013-02-25 17:22:00,
2013-02-25 11:24:00,56.3,39.9,29.77,West,269,1.0,6.0,54,0.00,,---,0.00,VWS V14.01,2013-02-25 17:24:00,
2013-02-25 11:25:00,56.3,39.9,29.77,ESE,120,1.0,6.0,54,0.00,,---,0.00,VWS V14.01,2013-02-25 17:25:00,
2013-02-25 11:27:00,56.4,40.5,29.77,SW,216,3.0,6.0,55,0.00,,---,0.00,VWS V14.01,2013-02-25 17:27:00,
2013-02-25 11:29:00,56.5,41.0,29.77,SE,137,2.0,6.0,56,0.00,,---,0.00,VWS V14.01,2013-02-25 17:29:00,
2013-02-25 11:30:00,56.5,41.0,29.77,SE,141,1.0,6.0,56,0.00,,---,0.00,VWS V14.01,2013-02-25 17:30:00,
2013-02-25 11:32:00,56.5,41.5,29.77,SE,145,3.0,3.0,57,0.00,,---,0.00,VWS V14.01,2013-02-25 17:32:00,
2013-02-25 11:35:00,56.5,41.9,29.76,SSE,162,1.0,5.0,58,0.00,,---,0.00,VWS V14.01,2013-02-25 17:35:00,
2013-02-25 11:37:00,56.5,41.9,29.76,SE,143,3.0,6.0,58,0.00,,---,0.00,VWS V14.01,2013-02-25 17:37:00,
2013-02-25 11:40:00,56.5,41.9,29.76,SSW,203,3.0,6.0,58,0.00,,---,0.00,VWS V14.01,2013-02-25 17:40:00,
2013-02-25 11:42:00,56.6,42.0,29.76,SE,141,1.0,6.0,58,0.00,,---,0.00,VWS V14.01,2013-02-25 17:42:00,
2013-02-25 11:45:00,56.6,42.0,29.76,SSE,153,2.0,6.0,58,0.00,,---,0.00,VWS V14.01,2013-02-25 17:45:00,
2013-02-25 11:46:00,56.7,42.1,29.76,SE,141,4.0,4.0,58,0.00,,---,0.00,VWS V14.01,2013-02-25 17:46:00,
2013-02-25 11:48:00,56.7,42.1,29.75,ESE,111,2.0,5.0,58,0.00,,---,0.00,VWS V14.01,2013-02-25 17:48:00,
2013-02-25 11:50:00,56.7,42.1,29.75,SSW,206,6.0,6.0,58,0.00,,---,0.00,VWS V14.01,2013-02-25 17:50:00,
2013-02-25 11:51:00,56.7,42.1,29.75,SSW,202,2.0,6.0,58,0.00,,---,0.00,VWS V14.01,2013-02-25 17:51:00,
2013-02-25 11:53:00,56.8,42.2,29.75,SSW,194,2.0,6.0,58,0.00,,---,0.00,VWS V14.01,2013-02-25 17:53:00,
2013-02-25 11:55:00,56.8,42.6,29.75,SSE,150,5.0,7.0,59,0.00,,---,0.00,VWS V14.01,2013-02-25 17:55:00,
2013-02-25 11:56:00,56.9,42.7,29.75,SE,143,4.0,7.0,59,0.00,,---,0.00,VWS V14.01,2013-02-25 17:56:00,
2013-02-25 11:58:00,57.0,42.8,29.75,SE,143,2.0,7.0,59,0.00,,---,0.00,VWS V14.01,2013-02-25 17:58:00,
2013-02-25 12:00:00,57.1,43.4,29.75,ESE,114,2.0,7.0,60,0.00,,---,0.00,VWS V14.01,2013-02-25 18:00:00,
2013-02-25 12:01:00,57.1,43.4,29.75,SE,135,5.0,5.0,60,0.00,,---,0.00,VWS V14.01,2013-02-25 18:01:00,
2013-02-25 12:03:00,57.1,43.4,29.74,SSE,147,3.0,5.0,60,0.00,,---,0.00,VWS V14.01,2013-02-25 18:03:00,
2013-02-25 12:05:00,57.1,43.4,29.74,ESE,119,2.0,7.0,60,0.00,,---,0.00,VWS V14.01,2013-02-25 18:05:00,
2013-02-25 12:06:00,57.1,43.4,29.74,SE,129,3.0,7.0,60,0.00,,---,0.00,VWS V14.01,2013-02-25 18:06:00,
2013-02-25 12:07:00,57.1,43.4,29.74,SE,127,2.0,7.0,60,0.00,,---,0.00,VWS V14.01,2013-02-25 18:07:00,
2013-02-25 12:08:00,57.1,43.4,29.74,SSE,165,1.0,7.0,60,0.00,,---,0.00,VWS V14.01,2013-02-25 18:08:00,
2013-02-25 12:10:00,57.1,43.4,29.74,SE,125,2.0,7.0,60,0.00,,---,0.00,VWS V14.01,2013-02-25 18:10:00,
2013-02-25 12:11:00,57.2,43.5,29.73,SE,127,4.0,7.0,60,0.00,,---,0.00,VWS V14.01,2013-02-25 18:11:00,
2013-02-25 12:12:00,57.1,43.4,29.73,SE,129,2.0,7.0,60,0.00,,---,0.00,VWS V14.01,2013-02-25 18:12:00,
2013-02-25 12:13:00,57.1,42.9,29.73,South,181,1.0,7.0,59,0.00,,---,0.00,VWS V14.01,2013-02-25 18:13:00,
2013-02-25 12:15:00,57.1,42.9,29.74,ESE,122,2.0,7.0,59,0.00,,---,0.00,VWS V14.01,2013-02-25 18:15:00,
2013-02-25 12:16:00,57.0,42.8,29.73,SE,131,1.0,4.0,59,0.00,,---,0.00,VWS V14.01,2013-02-25 18:16:00,
2013-02-25 12:17:00,57.0,42.8,29.73,NE,42,8.0,8.0,59,0.00,,---,0.00,VWS V14.01,2013-02-25 18:17:00,
2013-02-25 12:18:00,56.9,42.7,29.73,SE,135,2.0,8.0,59,0.00,,---,0.00,VWS V14.01,2013-02-25 18:18:00,
2013-02-25 12:20:00,56.9,43.2,29.73,SW,231,1.0,8.0,60,0.00,,---,0.00,VWS V14.01,2013-02-25 18:20:00,
2013-02-25 12:21:00,57.0,43.3,29.73,ESE,119,2.0,8.0,60,0.00,,---,0.00,VWS V14.01,2013-02-25 18:21:00,
2013-02-25 12:22:00,57.0,42.8,29.73,SE,124,5.0,8.0,59,0.00,,---,0.00,VWS V14.01,2013-02-25 18:22:00,
2013-02-25 12:23:00,57.0,42.8,29.73,SE,135,1.0,8.0,59,0.00,,---,0.00,VWS V14.01,2013-02-25 18:23:00,
2013-02-25 12:25:00,57.0,42.8,29.73,WSW,256,1.0,8.0,59,0.00,,---,0.00,VWS V14.01,2013-02-25 18:25:00,
2013-02-25 12:27:00,57.0,42.8,29.73,SSW,200,2.0,8.0,59,0.00,,---,0.00,VWS V14.01,2013-02-25 18:27:00,
2013-02-25 12:28:00,57.1,43.4,29.72,SE,143,2.0,8.0,60,0.00,,---,0.00,VWS V14.01,2013-02-25 18:28:00,
2013-02-25 12:30:00,57.1,42.9,29.72,NNE,32,1.0,2.0,59,0.00,,---,0.00,VWS V14.01,2013-02-25 18:30:00,
2013-02-25 12:32:00,57.0,42.8,29.72,South,177,1.0,3.0,59,0.00,,---,0.00,VWS V14.01,2013-02-25 18:32:00,
2013-02-25 12:33:00,57.0,42.8,29.72,SSW,195,2.0,5.0,59,0.00,,---,0.00,VWS V14.01,2013-02-25 18:33:00,
2013-02-25 12:35:00,56.8,43.1,29.72,SE,126,3.0,6.0,60,0.00,,---,0.00,VWS V14.01,2013-02-25 18:35:00,
2013-02-25 12:37:00,56.8,43.1,29.72,ESE,111,3.0,8.0,60,0.00,,---,0.00,VWS V14.01,2013-02-25 18:37:00,
2013-02-25 12:38:00,56.8,43.1,29.71,SE,144,2.0,8.0,60,0.00,,---,0.00,VWS V14.01,2013-02-25 18:38:00,
2013-02-25 12:39:00,56.8,43.5,29.71,SSE,162,2.0,8.0,61,0.00,,---,0.00,VWS V14.01,2013-02-25 18:39:00,
2013-02-25 12:40:00,56.8,43.5,29.71,SSE,153,2.0,8.0,61,0.00,,---,0.00,VWS V14.01,2013-02-25 18:40:00,
2013-02-25 12:42:00,56.8,43.5,29.71,South,181,1.0,8.0,61,0.00,,---,0.00,VWS V14.01,2013-02-25 18:42:00,
2013-02-25 12:43:00,56.8,43.5,29.70,WSW,247,1.0,8.0,61,0.00,,---,0.00,VWS V14.01,2013-02-25 18:43:00,
2013-02-25 12:44:00,56.8,43.5,29.71,SE,136,3.0,8.0,61,0.00,,---,0.00,VWS V14.01,2013-02-25 18:44:00,
2013-02-25 12:45:00,56.8,43.5,29.71,SE,129,2.0,2.0,61,0.00,,---,0.00,VWS V14.01,2013-02-25 18:45:00,
2013-02-25 12:47:00,56.8,43.5,29.71,SE,129,1.0,4.0,61,0.00,,---,0.00,VWS V14.01,2013-02-25 18:47:00,
2013-02-25 12:48:00,56.8,43.9,29.70,East,86,2.0,4.0,62,0.00,,---,0.00,VWS V14.01,2013-02-25 18:48:00,
2013-02-25 12:49:00,56.8,43.9,29.70,SSE,168,4.0,4.0,62,0.00,,---,0.00,VWS V14.01,2013-02-25 18:49:00,
2013-02-25 12:50:00,56.9,44.5,29.70,SSE,165,4.0,5.0,63,0.00,,---,0.00,VWS V14.01,2013-02-25 18:50:00,
2013-02-25 12:52:00,56.9,44.5,29.70,East,82,5.0,7.0,63,0.00,,---,0.00,VWS V14.01,2013-02-25 18:52:00,
2013-02-25 12:53:00,56.8,44.8,29.69,WSW,237,2.0,7.0,64,0.00,,---,0.00,VWS V14.01,2013-02-25 18:53:00,
2013-02-25 12:54:00,56.8,44.8,29.69,ESE,118,1.0,7.0,64,0.00,,---,0.00,VWS V14.01,2013-02-25 18:54:00,
2013-02-25 12:55:00,56.8,45.2,29.69,ESE,117,2.0,9.0,65,0.00,,---,0.00,VWS V14.01,2013-02-25 18:55:00,
2013-02-25 12:57:00,56.7,45.1,29.69,SE,132,2.0,9.0,65,0.00,,---,0.00,VWS V14.01,2013-02-25 18:57:00,
2013-02-25 12:58:00,56.7,45.1,29.69,East,89,3.0,9.0,65,0.00,,---,0.00,VWS V14.01,2013-02-25 18:58:00,
2013-02-25 12:59:00,56.7,45.1,29.69,SW,226,2.0,9.0,65,0.00,,---,0.00,VWS V14.01,2013-02-25 18:59:00,
2013-02-25 13:00:00,56.7,45.1,29.69,SE,136,2.0,5.0,65,0.00,,---,0.00,VWS V14.01,2013-02-25 19:00:00,
2013-02-25 13:03:00,56.7,45.1,29.69,SSE,163,3.0,7.0,65,0.00,,---,0.00,VWS V14.01,2013-02-25 19:03:00,
2013-02-25 13:04:00,56.7,45.1,29.69,NNW,332,2.0,7.0,65,0.00,,---,0.00,VWS V14.01,2013-02-25 19:04:00,
2013-02-25 13:06:00,56.7,45.1,29.69,South,179,2.0,7.0,65,0.00,,---,0.00,VWS V14.01,2013-02-25 19:06:00,
2013-02-25 13:08:00,56.6,45.0,29.68,SW,224,2.0,7.0,65,0.00,,---,0.00,VWS V14.01,2013-02-25 19:08:00,
2013-02-25 13:09:00,56.7,45.5,29.68,South,172,1.0,7.0,66,0.00,,---,0.00,VWS V14.01,2013-02-25 19:09:00,
2013-02-25 13:11:00,56.7,45.5,29.68,SSE,150,3.0,7.0,66,0.00,,---,0.00,VWS V14.01,2013-02-25 19:11:00,
2013-02-25 13:13:00,56.8,46.0,29.68,SE,127,3.0,7.0,67,0.00,,---,0.00,VWS V14.01,2013-02-25 19:13:00,
2013-02-25 13:14:00,56.8,45.6,29.68,SE,145,1.0,7.0,66,0.00,,---,0.00,VWS V14.01,2013-02-25 19:14:00,
2013-02-25 13:16:00,56.8,45.6,29.68,East,87,4.0,6.0,66,0.00,,---,0.00,VWS V14.01,2013-02-25 19:16:00,
2013-02-25 13:18:00,56.9,46.1,29.68,East,89,2.0,6.0,67,0.00,,---,0.00,VWS V14.01,2013-02-25 19:18:00,
2013-02-25 13:19:00,56.9,46.1,29.68,North,7,2.0,6.0,67,0.00,,---,0.00,VWS V14.01,2013-02-25 19:19:00,
2013-02-25 13:21:00,56.9,46.1,29.68,West,259,3.0,6.0,67,0.00,,---,0.00,VWS V14.01,2013-02-25 19:21:00,
2013-02-25 13:23:00,56.8,46.0,29.68,East,90,4.0,6.0,67,0.00,,---,0.00,VWS V14.01,2013-02-25 19:23:00,
2013-02-25 13:24:00,56.8,46.0,29.68,ESE,112,1.0,6.0,67,0.00,,---,0.00,VWS V14.01,2013-02-25 19:24:00,
2013-02-25 13:26:00,56.6,46.2,29.68,SE,137,3.0,6.0,68,0.00,,---,0.00,VWS V14.01,2013-02-25 19:26:00,
2013-02-25 13:28:00,56.5,46.5,29.67,ESE,111,2.0,8.0,69,0.00,,---,0.00,VWS V14.01,2013-02-25 19:28:00,
2013-02-25 13:29:00,56.5,46.5,29.67,East,90,5.0,8.0,69,0.00,,---,0.00,VWS V14.01,2013-02-25 19:29:00,
2013-02-25 13:30:00,56.5,46.5,29.67,ESE,120,4.0,8.0,69,0.00,,---,0.00,VWS V14.01,2013-02-25 19:30:00,
2013-02-25 13:31:00,56.4,46.8,29.67,West,271,2.0,5.0,70,0.00,,---,0.00,VWS V14.01,2013-02-25 19:31:00,
2013-02-25 13:34:00,56.4,46.8,29.67,SE,135,7.0,7.0,70,0.00,,---,0.00,VWS V14.01,2013-02-25 19:34:00,
2013-02-25 13:35:00,56.4,46.8,29.67,WSW,257,2.0,7.0,70,0.00,,---,0.00,VWS V14.01,2013-02-25 19:35:00,
2013-02-25 13:36:00,56.4,46.8,29.67,ESE,111,2.0,7.0,70,0.00,,---,0.00,VWS V14.01,2013-02-25 19:36:00,
2013-02-25 13:39:00,56.3,47.0,29.67,ESE,103,3.0,7.0,71,0.00,,---,0.00,VWS V14.01,2013-02-25 19:39:00,
2013-02-25 13:40:00,56.3,47.0,29.66,SE,127,1.0,7.0,71,0.00,,---,0.00,VWS V14.01,2013-02-25 19:40:00,
2013-02-25 13:41:00,56.5,47.6,29.66,WSW,240,2.0,7.0,72,0.00,,---,0.00,VWS V14.01,2013-02-25 19:41:00,
2013-02-25 13:44:00,56.7,47.4,29.66,SE,127,2.0,7.0,71,0.00,,---,0.00,VWS V14.01,2013-02-25 19:44:00,
2013-02-25 13:45:00,56.7,47.4,29.66,ESE,118,5.0,7.0,71,0.00,,---,0.00,VWS V14.01,2013-02-25 19:45:00,
2013-02-25 13:46:00,56.6,47.3,29.66,SE,143,2.0,7.0,71,0.00,,---,0.00,VWS V14.01,2013-02-25 19:46:00,
2013-02-25 13:49:00,56.6,47.3,29.66,ESE,122,3.0,7.0,71,0.00,,---,0.00,VWS V14.01,2013-02-25 19:49:00,
2013-02-25 13:50:00,56.6,47.3,29.66,East,80,5.0,7.0,71,0.00,,---,0.00,VWS V14.01,2013-02-25 19:50:00,
2013-02-25 13:51:00,56.5,47.2,29.66,East,80,3.0,10.0,71,0.00,,---,0.00,VWS V14.01,2013-02-25 19:51:00,
2013-02-25 13:54:00,56.3,47.4,29.66,SE,143,2.0,10.0,72,0.00,,---,0.00,VWS V14.01,2013-02-25 19:54:00,
2013-02-25 13:55:00,56.2,47.3,29.66,SE,135,4.0,10.0,72,0.00,,---,0.00,VWS V14.01,2013-02-25 19:55:00,
2013-02-25 13:57:00,56.1,47.2,29.66,NE,56,3.0,10.0,72,0.00,,---,0.00,VWS V14.01,2013-02-25 19:57:00,
2013-02-25 13:59:00,56.1,47.2,29.66,ESE,114,3.0,10.0,72,0.00,,---,0.00,VWS V14.01,2013-02-25 19:59:00,
2013-02-25 14:00:00,56.0,47.1,29.65,East,94,4.0,5.0,72,0.00,,---,0.00,VWS V14.01,2013-02-25 20:00:00,
2013-02-25 14:01:00,56.0,47.1,29.65,ESE,114,3.0,5.0,72,0.00,,---,0.00,VWS V14.01,2013-02-25 20:01:00,
2013-02-25 14:02:00,56.0,47.1,29.65,ESE,104,2.0,5.0,72,0.00,,---,0.00,VWS V14.01,2013-02-25 20:02:00,
2013-02-25 14:04:00,56.0,47.5,29.65,SE,130,6.0,6.0,73,0.00,,---,0.00,VWS V14.01,2013-02-25 20:04:00,
2013-02-25 14:05:00,55.9,47.4,29.64,ESE,104,4.0,7.0,73,0.00,,---,0.00,VWS V14.01,2013-02-25 20:05:00,
2013-02-25 14:06:00,56.0,47.5,29.64,ENE,77,4.0,8.0,73,0.00,,---,0.00,VWS V14.01,2013-02-25 20:06:00,
2013-02-25 14:07:00,55.9,47.4,29.64,East,82,6.0,10.0,73,0.00,,---,0.00,VWS V14.01,2013-02-25 20:07:00,
2013-02-25 14:09:00,56.0,47.5,29.64,ESE,114,2.0,10.0,73,0.00,,---,0.00,VWS V14.01,2013-02-25 20:09:00,
2013-02-25 14:11:00,56.0,47.8,29.64,WNW,301,2.0,10.0,74,0.00,,---,0.00,VWS V14.01,2013-02-25 20:11:00,
2013-02-25 14:13:00,56.1,47.9,29.64,SE,127,5.0,13.0,74,0.00,,---,0.00,VWS V14.01,2013-02-25 20:13:00,
2013-02-25 14:14:00,56.1,47.6,29.63,SE,127,4.0,13.0,73,0.00,,---,0.00,VWS V14.01,2013-02-25 20:14:00,
2013-02-25 14:16:00,56.2,48.0,29.63,SSW,210,9.0,9.0,74,0.00,,---,0.00,VWS V14.01,2013-02-25 20:16:00,
2013-02-25 14:18:00,56.4,47.9,29.63,SE,124,1.0,9.0,73,0.00,,---,0.00,VWS V14.01,2013-02-25 20:18:00,
2013-02-25 14:19:00,56.5,48.0,29.63,East,94,3.0,13.0,73,0.00,,---,0.00,VWS V14.01,2013-02-25 20:19:00,
2013-02-25 14:21:00,56.7,48.2,29.62,ESE,103,4.0,13.0,73,0.00,,---,0.00,VWS V14.01,2013-02-25 20:21:00,
2013-02-25 14:23:00,57.0,48.1,29.62,East,97,2.0,13.0,72,0.00,,---,0.00,VWS V14.01,2013-02-25 20:23:00,
2013-02-25 14:24:00,57.1,48.2,29.62,SE,135,2.0,13.0,72,0.00,,---,0.00,VWS V14.01,2013-02-25 20:24:00,
2013-02-25 14:26:00,57.3,48.0,29.62,South,172,2.0,13.0,71,0.00,,---,0.00,VWS V14.01,2013-02-25 20:26:00,
2013-02-25 14:28:00,57.4,48.1,29.62,SSW,213,4.0,13.0,71,0.00,,---,0.00,VWS V14.01,2013-02-25 20:28:00,
2013-02-25 14:29:00,57.4,48.1,29.62,East,93,2.0,13.0,71,0.00,,---,0.00,VWS V14.01,2013-02-25 20:29:00,
2013-02-25 14:31:00,57.5,48.2,29.61,West,259,3.0,4.0,71,0.00,,---,0.00,VWS V14.01,2013-02-25 20:31:00,
2013-02-25 14:33:00,57.6,47.9,29.61,East,94,5.0,13.0,70,0.00,,---,0.00,VWS V14.01,2013-02-25 20:33:00,
2013-02-25 14:34:00,57.5,47.8,29.61,SE,130,2.0,13.0,70,0.00,,---,0.00,VWS V14.01,2013-02-25 20:34:00,
2013-02-25 14:36:00,57.4,47.7,29.61,ESE,119,6.0,13.0,70,0.00,,---,0.00,VWS V14.01,2013-02-25 20:36:00,
2013-02-25 14:38:00,57.2,47.5,29.61,SW,218,2.0,13.0,70,0.00,,---,0.00,VWS V14.01,2013-02-25 20:38:00,
2013-02-25 14:40:00,57.4,48.1,29.61,South,185,1.0,13.0,71,0.00,,---,0.00,VWS V14.01,2013-02-25 20:40:00,
2013-02-25 14:41:00,57.6,48.3,29.61,ESE,118,3.0,13.0,71,0.00,,---,0.00,VWS V14.01,2013-02-25 20:41:00,
2013-02-25 14:42:00,57.7,48.4,29.60,ESE,112,2.0,13.0,71,0.00,,---,0.00,VWS V14.01,2013-02-25 20:42:00,
2013-02-25 14:43:00,58.1,48.4,29.60,ESE,122,3.0,13.0,70,0.00,,---,0.00,VWS V14.01,2013-02-25 20:43:00,
2013-02-25 14:45:00,58.4,48.7,29.60,East,94,3.0,13.0,70,0.00,,---,0.00,VWS V14.01,2013-02-25 20:45:00,
2013-02-25 14:46:00,58.5,48.0,29.59,East,83,5.0,9.0,68,0.00,,---,0.00,VWS V14.01,2013-02-25 20:46:00,
2013-02-25 14:47:00,58.5,48.0,29.59,East,101,4.0,9.0,68,0.00,,---,0.00,VWS V14.01,2013-02-25 20:47:00,
2013-02-25 14:48:00,58.5,48.0,29.59,ESE,115,4.0,9.0,68,0.00,,---,0.00,VWS V14.01,2013-02-25 20:48:00,
2013-02-25 14:50:00,58.7,48.2,29.59,East,97,5.0,9.0,68,0.00,,---,0.00,VWS V14.01,2013-02-25 20:50:00,
2013-02-25 14:51:00,58.8,47.9,29.58,ESE,108,3.0,9.0,67,0.00,,---,0.00,VWS V14.01,2013-02-25 20:51:00,
2013-02-25 14:52:00,58.9,48.0,29.58,ESE,119,8.0,10.0,67,0.00,,---,0.00,VWS V14.01,2013-02-25 20:52:00,
2013-02-25 14:53:00,58.8,47.9,29.57,East,98,12.0,12.0,67,0.00,,---,0.00,VWS V14.01,2013-02-25 20:53:00,
2013-02-25 14:55:00,58.7,47.8,29.57,East,92,5.0,12.0,67,0.00,,---,0.00,VWS V14.01,2013-02-25 20:55:00,
2013-02-25 14:56:00,58.6,47.7,29.57,SE,131,3.0,12.0,67,0.00,,---,0.00,VWS V14.01,2013-02-25 20:56:00,
2013-02-25 14:57:00,58.6,47.7,29.57,East,87,5.0,12.0,67,0.00,,---,0.00,VWS V14.01,2013-02-25 20:57:00,
2013-02-25 14:58:00,58.6,48.1,29.57,ESE,119,4.0,12.0,68,0.00,,---,0.00,VWS V14.01,2013-02-25 20:58:00,
2013-02-25 15:00:00,58.8,47.9,29.58,ESE,117,5.0,8.0,67,0.00,,---,0.00,VWS V14.01,2013-02-25 21:00:00,
2013-02-25 15:01:00,58.8,47.5,29.58,SSW,205,6.0,8.0,66,0.00,,---,0.00,VWS V14.01,2013-02-25 21:01:00,
2013-02-25 15:02:00,58.8,47.5,29.57,SE,145,3.0,8.0,66,0.00,,---,0.00,VWS V14.01,2013-02-25 21:02:00,
2013-02-25 15:03:00,58.9,47.6,29.57,North,3,2.0,8.0,66,0.00,,---,0.00,VWS V14.01,2013-02-25 21:03:00,
2013-02-25 15:06:00,59.1,47.8,29.58,ESE,117,4.0,9.0,66,0.00,,---,0.00,VWS V14.01,2013-02-25 21:06:00,
2013-02-25 15:07:00,59.0,47.3,29.57,SE,132,2.0,9.0,65,0.00,,---,0.00,VWS V14.01,2013-02-25 21:07:00,
2013-02-25 15:08:00,59.0,47.3,29.57,East,82,4.0,9.0,65,0.00,,---,0.00,VWS V14.01,2013-02-25 21:08:00,
2013-02-25 15:11:00,58.7,47.0,29.57,ESE,115,4.0,12.0,65,0.00,,---,0.00,VWS V14.01,2013-02-25 21:11:00,
2013-02-25 15:12:00,58.6,46.9,29.57,ESE,119,5.0,12.0,65,0.00,,---,0.00,VWS V14.01,2013-02-25 21:12:00,
2013-02-25 15:14:00,58.4,46.7,29.56,South,182,1.0,12.0,65,0.00,,---,0.00,VWS V14.01,2013-02-25 21:14:00,
2013-02-25 15:16:00,58.5,47.2,29.56,ESE,122,3.0,11.0,66,0.00,,---,0.00,VWS V14.01,2013-02-25 21:16:00,
2013-02-25 15:17:00,58.5,47.2,29.56,NE,56,3.0,11.0,66,0.00,,---,0.00,VWS V14.01,2013-02-25 21:17:00,
2013-02-25 15:19:00,58.5,46.8,29.56,ESE,117,3.0,11.0,65,0.00,,---,0.00,VWS V14.01,2013-02-25 21:19:00,
2013-02-25 15:21:00,58.5,46.8,29.56,East,93,6.0,11.0,65,0.00,,---,0.00,VWS V14.01,2013-02-25 21:21:00,
2013-02-25 15:22:00,58.6,46.9,29.56,ESE,104,3.0,11.0,65,0.00,,---,0.00,VWS V14.01,2013-02-25 21:22:00,
2013-02-25 15:24:00,58.7,47.4,29.56,SSE,150,0.0,11.0,66,0.00,,---,0.00,VWS V14.01,2013-02-25 21:24:00,
2013-02-25 15:26:00,58.8,47.1,29.55,ESE,114,5.0,11.0,65,0.00,,---,0.00,VWS V14.01,2013-02-25 21:26:00,
2013-02-25 15:27:00,58.8,47.1,29.55,SE,124,3.0,11.0,65,0.00,,---,0.00,VWS V14.01,2013-02-25 21:27:00,
2013-02-25 15:29:00,58.8,47.1,29.56,SE,134,8.0,11.0,65,0.00,,---,0.00,VWS V14.01,2013-02-25 21:29:00,
2013-02-25 15:31:00,58.9,47.2,29.56,WNW,299,2.0,5.0,65,0.00,,---,0.00,VWS V14.01,2013-02-25 21:31:00,
2013-02-25 15:32:00,58.9,47.2,29.56,East,96,3.0,5.0,65,0.00,,---,0.00,VWS V14.01,2013-02-25 21:32:00,
2013-02-25 15:33:00,59.0,47.3,29.56,SSW,200,2.0,6.0,65,0.00,,---,0.00,VWS V14.01,2013-02-25 21:33:00,
2013-02-25 15:34:00,58.9,46.8,29.56,ESE,122,4.0,8.0,64,0.00,,---,0.00,VWS V14.01,2013-02-25 21:34:00,
2013-02-25 15:37:00,58.8,47.1,29.55,SE,145,1.0,8.0,65,0.00,,---,0.00,VWS V14.01,2013-02-25 21:37:00,
2013-02-25 15:38:00,58.8,47.1,29.55,SE,145,2.0,8.0,65,0.00,,---,0.00,VWS V14.01,2013-02-25 21:38:00,
2013-02-25 15:39:00,58.8,47.1,29.55,SE,126,6.0,8.0,65,0.00,,---,0.00,VWS V14.01,2013-02-25 21:39:00,
2013-02-25 15:42:00,58.7,47.0,29.55,SE,135,2.0,8.0,65,0.00,,---,0.00,VWS V14.01,2013-02-25 21:42:00,
2013-02-25 15:43:00,58.7,47.0,29.55,SE,142,2.0,8.0,65,0.00,,---,0.00,VWS V14.01,2013-02-25 21:43:00,
2013-02-25 15:44:00,58.7,47.0,29.55,ESE,115,3.0,8.0,65,0.00,,---,0.00,VWS V14.01,2013-02-25 21:44:00,
2013-02-25 15:47:00,58.6,46.9,29.55,SSW,193,2.0,7.0,65,0.00,,---,0.00,VWS V14.01,2013-02-25 21:47:00,
2013-02-25 15:48:00,58.6,46.9,29.55,SE,125,3.0,7.0,65,0.00,,---,0.00,VWS V14.01,2013-02-25 21:48:00,
2013-02-25 15:49:00,58.6,46.9,29.55,East,91,4.0,13.0,65,0.00,,---,0.00,VWS V14.01,2013-02-25 21:49:00,
2013-02-25 15:52:00,58.4,46.7,29.55,ENE,74,5.0,13.0,65,0.00,,---,0.00,VWS V14.01,2013-02-25 21:52:00,
2013-02-25 15:53:00,58.4,47.0,29.55,SSE,160,2.0,12.0,65,0.00,,,0.00,weatherlink.com 1.10,2013-02-25 21:53:00,
2013-02-25 15:54:00,58.4,46.7,29.55,SE,144,3.0,13.0,65,0.00,,---,0.00,VWS V14.01,2013-02-25 21:54:00,
2013-02-25 15:57:00,58.4,47.1,29.55,SE,145,1.0,13.0,66,0.00,,---,0.00,VWS V14.01,2013-02-25 21:57:00,
2013-02-25 15:58:00,58.4,46.7,29.55,ESE,111,3.0,13.0,65,0.00,,---,0.00,VWS V14.01,2013-02-25 21:58:00,
2013-02-25 15:59:00,58.4,46.7,29.55,ESE,117,2.0,13.0,65,0.00,,---,0.00,VWS V14.01,2013-02-25 21:59:00,
2013-02-25 16:02:00,58.3,47.0,29.56,West,262,4.0,5.0,66,0.00,,---,0.00,VWS V14.01,2013-02-25 22:02:00,
2013-02-25 16:03:00,58.3,47.0,29.56,SE,143,3.0,5.0,66,0.00,,---,0.00,VWS V14.01,2013-02-25 22:03:00,
2013-02-25 16:04:00,58.2,46.9,29.56,ESE,104,1.0,5.0,66,0.00,,---,0.00,VWS V14.01,2013-02-25 22:04:00,
2013-02-25 16:07:00,58.1,46.8,29.55,East,84,5.0,5.0,66,0.00,,---,0.00,VWS V14.01,2013-02-25 22:07:00,
2013-02-25 16:08:00,58.0,46.7,29.55,ESE,119,3.0,5.0,66,0.00,,---,0.00,VWS V14.01,2013-02-25 22:08:00,
2013-02-25 16:09:00,58.0,46.7,29.55,SSE,150,1.0,5.0,66,0.00,,---,0.00,VWS V14.01,2013-02-25 22:09:00,
2013-02-25 16:12:00,57.9,46.6,29.56,WSW,250,0.0,5.0,66,0.00,,---,0.00,VWS V14.01,2013-02-25 22:12:00,
2013-02-25 16:13:00,57.9,47.0,29.56,North,352,1.0,5.0,67,0.00,,---,0.00,VWS V14.01,2013-02-25 22:13:00,
2013-02-25 16:14:00,57.9,47.0,29.56,SE,135,2.0,5.0,67,0.00,,---,0.00,VWS V14.01,2013-02-25 22:14:00,
2013-02-25 16:17:00,57.8,46.9,29.57,SE,136,6.0,6.0,67,0.00,,---,0.00,VWS V14.01,2013-02-25 22:17:00,
2013-02-25 16:18:00,57.8,46.9,29.57,SW,230,3.0,6.0,67,0.00,,---,0.00,VWS V14.01,2013-02-25 22:18:00,
2013-02-25 16:20:00,57.8,46.9,29.57,ESE,117,3.0,6.0,67,0.00,,---,0.00,VWS V14.01,2013-02-25 22:20:00,
2013-02-25 16:22:00,57.7,46.8,29.56,SSE,149,2.0,6.0,67,0.00,,---,0.00,VWS V14.01,2013-02-25 22:22:00,
2013-02-25 16:23:00,57.7,46.8,29.56,SE,131,2.0,6.0,67,0.00,,---,0.00,VWS V14.01,2013-02-25 22:23:00,
2013-02-25 16:24:00,57.7,46.8,29.56,ESE,119,4.0,6.0,67,0.00,,---,0.00,VWS V14.01,2013-02-25 22:24:00,
2013-02-25 16:25:00,57.6,47.1,29.56,SE,142,2.0,6.0,68,0.00,,---,0.00,VWS V14.01,2013-02-25 22:25:00,
2013-02-25 16:27:00,57.5,47.0,29.55,ESE,120,4.0,6.0,68,0.00,,---,0.00,VWS V14.01,2013-02-25 22:27:00,
2013-02-25 16:28:00,57.5,47.0,29.55,East,98,4.0,6.0,68,0.00,,---,0.00,VWS V14.01,2013-02-25 22:28:00,
2013-02-25 16:29:00,57.5,47.0,29.55,East,92,3.0,7.0,68,0.00,,---,0.00,VWS V14.01,2013-02-25 22:29:00,
2013-02-25 16:30:00,57.4,46.9,29.54,ESE,110,2.0,3.0,68,0.00,,---,0.00,VWS V14.01,2013-02-25 22:30:00,
2013-02-25 16:32:00,57.3,46.8,29.53,ESE,103,2.0,6.0,68,0.00,,---,0.00,VWS V14.01,2013-02-25 22:32:00,
2013-02-25 16:33:00,57.3,47.2,29.53,SSE,149,2.0,6.0,69,0.00,,---,0.00,VWS V14.01,2013-02-25 22:33:00,
2013-02-25 16:34:00,57.3,47.2,29.53,ESE,112,2.0,6.0,69,0.00,,---,0.00,VWS V14.01,2013-02-25 22:34:00,
2013-02-25 16:35:00,57.2,47.1,29.53,SE,125,5.0,6.0,69,0.00,,---,0.00,VWS V14.01,2013-02-25 22:35:00,
2013-02-25 16:37:00,57.2,47.1,29.53,ESE,114,4.0,6.0,69,0.00,,---,0.00,VWS V14.01,2013-02-25 22:37:00,
2013-02-25 16:38:00,57.2,47.1,29.53,East,80,4.0,6.0,69,0.00,,---,0.00,VWS V14.01,2013-02-25 22:38:00,
2013-02-25 16:39:00,57.2,47.1,29.53,West,280,1.0,6.0,69,0.00,,---,0.00,VWS V14.01,2013-02-25 22:39:00,
2013-02-25 16:40:00,57.1,47.0,29.52,ESE,115,3.0,7.0,69,0.00,,---,0.00,VWS V14.01,2013-02-25 22:40:00,
2013-02-25 16:43:00,57.0,46.9,29.51,ENE,77,6.0,7.0,69,0.00,,---,0.00,VWS V14.01,2013-02-25 22:43:00,
2013-02-25 16:44:00,57.0,46.9,29.51,SE,131,5.0,7.0,69,0.00,,---,0.00,VWS V14.01,2013-02-25 22:44:00,
2013-02-25 16:46:00,56.9,47.2,29.51,East,82,6.0,6.0,70,0.00,,---,0.00,VWS V14.01,2013-02-25 22:46:00,
2013-02-25 16:48:00,56.9,47.2,29.52,SE,127,3.0,7.0,70,0.00,,---,0.00,VWS V14.01,2013-02-25 22:48:00,
2013-02-25 16:49:00,56.8,47.1,29.51,SSE,150,1.0,7.0,70,0.00,,---,0.00,VWS V14.01,2013-02-25 22:49:00,
2013-02-25 16:51:00,56.8,47.1,29.52,ESE,114,1.0,7.0,70,0.00,,---,0.00,VWS V14.01,2013-02-25 22:51:00,
2013-02-25 16:53:00,56.8,47.1,29.52,SSE,154,1.0,7.0,70,0.00,,---,0.00,VWS V14.01,2013-02-25 22:53:00,
2013-02-25 16:54:00,56.8,47.1,29.52,SSE,151,2.0,7.0,70,0.00,,---,0.00,VWS V14.01,2013-02-25 22:54:00,
2013-02-25 16:56:00,56.8,47.5,29.52,SE,141,3.0,7.0,71,0.00,,---,0.00,VWS V14.01,2013-02-25 22:56:00,
2013-02-25 16:58:00,56.8,47.5,29.52,SE,146,1.0,7.0,71,0.00,,---,0.00,VWS V14.01,2013-02-25 22:58:00,
2013-02-25 16:59:00,56.7,47.4,29.52,ESE,122,2.0,8.0,71,0.00,,---,0.00,VWS V14.01,2013-02-25 22:59:00,
2013-02-25 17:01:00,56.8,47.5,29.52,SSW,193,1.0,3.0,71,0.00,,---,0.00,VWS V14.01,2013-02-25 23:01:00,
2013-02-25 17:03:00,56.8,47.5,29.52,ESE,119,5.0,5.0,71,0.00,,---,0.00,VWS V14.01,2013-02-25 23:03:00,
2013-02-25 17:04:00,56.8,47.5,29.52,ENE,77,3.0,5.0,71,0.00,,---,0.00,VWS V14.01,2013-02-25 23:04:00,
2013-02-25 17:06:00,56.8,47.9,29.53,East,84,1.0,5.0,72,0.00,,---,0.00,VWS V14.01,2013-02-25 23:06:00,
2013-02-25 17:08:00,56.8,47.9,29.52,SE,134,2.0,5.0,72,0.00,,---,0.00,VWS V14.01,2013-02-25 23:08:00,
2013-02-25 17:09:00,56.9,48.0,29.53,East,79,4.0,5.0,72,0.00,,---,0.00,VWS V14.01,2013-02-25 23:09:00,
2013-02-25 17:11:00,56.9,48.3,29.53,SSE,158,1.0,6.0,73,0.00,,---,0.00,VWS V14.01,2013-02-25 23:11:00,
2013-02-25 17:13:00,56.9,48.3,29.53,East,90,1.0,6.0,73,0.00,,---,0.00,VWS V14.01,2013-02-25 23:13:00,
2013-02-25 17:14:00,56.9,48.3,29.52,SSW,210,2.0,6.0,73,0.00,,---,0.00,VWS V14.01,2013-02-25 23:14:00,
2013-02-25 17:15:00,56.9,48.3,29.52,ESE,112,4.0,6.0,73,0.00,,---,0.00,VWS V14.01,2013-02-25 23:15:00,
2013-02-25 17:16:00,57.0,48.8,29.52,SE,130,7.0,14.0,74,0.00,,---,0.00,VWS V14.01,2013-02-25 23:16:00,
2013-02-25 17:18:00,57.0,48.8,29.52,ESE,117,2.0,14.0,74,0.00,,---,0.00,VWS V14.01,2013-02-25 23:18:00,
2013-02-25 17:19:00,57.1,48.9,29.52,SSE,150,5.0,14.0,74,0.00,,---,0.00,VWS V14.01,2013-02-25 23:19:00,
2013-02-25 17:20:00,57.1,48.9,29.52,SE,127,3.0,14.0,74,0.00,,---,0.00,VWS V14.01,2013-02-25 23:20:00,
2013-02-25 17:21:00,57.2,49.0,29.52,WSW,242,1.0,14.0,74,0.00,,---,0.00,VWS V14.01,2013-02-25 23:21:00,
2013-02-25 17:23:00,57.1,48.9,29.52,South,172,1.0,14.0,74,0.00,,---,0.00,VWS V14.01,2013-02-25 23:23:00,
2013-02-25 17:24:00,57.1,48.9,29.52,South,175,1.0,14.0,74,0.00,,---,0.00,VWS V14.01,2013-02-25 23:24:00,
2013-02-25 17:25:00,57.1,49.3,29.52,SSE,149,2.0,14.0,75,0.00,,---,0.00,VWS V14.01,2013-02-25 23:25:00,
2013-02-25 17:26:00,57.2,49.4,29.51,SE,131,5.0,14.0,75,0.00,,---,0.00,VWS V14.01,2013-02-25 23:26:00,
2013-02-25 17:28:00,57.2,49.4,29.51,SSE,163,2.0,14.0,75,0.00,,---,0.00,VWS V14.01,2013-02-25 23:28:00,
2013-02-25 17:29:00,57.2,49.4,29.51,SE,140,4.0,14.0,75,0.00,,---,0.00,VWS V14.01,2013-02-25 23:29:00,
2013-02-25 17:30:00,57.2,49.4,29.51,SSE,148,1.0,14.0,75,0.00,,---,0.00,VWS V14.01,2013-02-25 23:30:00,
2013-02-25 17:31:00,57.2,49.4,29.51,SE,136,2.0,3.0,75,0.00,,---,0.00,VWS V14.01,2013-02-25 23:31:00,
2013-02-25 17:33:00,57.2,49.4,29.51,SSE,150,6.0,8.0,75,0.00,,---,0.00,VWS V14.01,2013-02-25 23:33:00,
2013-02-25 17:34:00,57.2,49.4,29.51,NNE,24,5.0,8.0,75,0.00,,---,0.00,VWS V14.01,2013-02-25 23:34:00,
2013-02-25 17:35:00,57.2,49.4,29.51,ESE,120,1.0,8.0,75,0.00,,---,0.00,VWS V14.01,2013-02-25 23:35:00,
2013-02-25 17:37:00,57.2,49.4,29.51,East,94,3.0,8.0,75,0.00,,---,0.00,VWS V14.01,2013-02-25 23:37:00,
2013-02-25 17:38:00,57.2,49.4,29.51,ESE,122,2.0,8.0,75,0.00,,---,0.00,VWS V14.01,2013-02-25 23:38:00,
2013-02-25 17:39:00,57.2,49.4,29.51,ESE,105,3.0,8.0,75,0.00,,---,0.00,VWS V14.01,2013-02-25 23:39:00,
2013-02-25 17:40:00,57.2,49.4,29.51,SSE,147,2.0,8.0,75,0.00,,---,0.00,VWS V14.01,2013-02-25 23:40:00,
2013-02-25 17:42:00,57.2,49.7,29.51,SSE,147,3.0,8.0,76,0.00,,---,0.00,VWS V14.01,2013-02-25 23:42:00,
2013-02-25 17:43:00,57.2,49.7,29.51,SSW,206,1.0,8.0,76,0.00,,---,0.00,VWS V14.01,2013-02-25 23:43:00,
2013-02-25 17:44:00,57.2,49.7,29.51,ESE,104,2.0,8.0,76,0.00,,---,0.00,VWS V14.01,2013-02-25 23:44:00,
2013-02-25 17:45:00,57.2,49.7,29.51,SE,136,1.0,8.0,76,0.00,,---,0.00,VWS V14.01,2013-02-25 23:45:00,
2013-02-25 17:47:00,57.2,49.7,29.50,East,90,2.0,4.0,76,0.00,,---,0.00,VWS V14.01,2013-02-25 23:47:00,
2013-02-25 17:48:00,57.2,49.7,29.50,WNW,292,3.0,7.0,76,0.00,,---,0.00,VWS V14.01,2013-02-25 23:48:00,
2013-02-25 17:49:00,57.2,49.7,29.50,ENE,73,4.0,7.0,76,0.00,,---,0.00,VWS V14.01,2013-02-25 23:49:00,
2013-02-25 17:50:00,57.3,49.8,29.50,SE,127,1.0,7.0,76,0.00,,---,0.00,VWS V14.01,2013-02-25 23:50:00,
2013-02-25 17:52:00,57.2,49.7,29.50,SE,125,3.0,7.0,76,0.00,,---,0.00,VWS V14.01,2013-02-25 23:52:00,
2013-02-25 17:53:00,57.3,49.8,29.50,SSW,192,1.0,7.0,76,0.00,,---,0.00,VWS V14.01,2013-02-25 23:53:00,
2013-02-25 17:54:00,57.3,49.8,29.50,NNE,22,4.0,7.0,76,0.00,,---,0.00,VWS V14.01,2013-02-25 23:54:00,
2013-02-25 17:55:00,57.3,49.8,29.49,SE,124,2.0,7.0,76,0.00,,---,0.00,VWS V14.01,2013-02-25 23:55:00,
2013-02-25 17:57:00,57.3,50.2,29.49,SE,131,2.0,7.0,77,0.00,,---,0.00,VWS V14.01,2013-02-25 23:57:00,
2013-02-25 17:58:00,57.3,50.2,29.49,East,98,3.0,7.0,77,0.00,,---,0.00,VWS V14.01,2013-02-25 23:58:00,
2013-02-25 17:59:00,57.3,50.2,29.49,ESE,119,7.0,7.0,77,0.00,,---,0.00,VWS V14.01,2013-02-25 23:59:00,
2013-02-25 18:00:00,57.4,50.3,29.49,ESE,107,4.0,4.0,77,0.00,,---,0.00,VWS V14.01,2013-02-26 00:00:00,
2013-02-25 18:02:00,57.4,50.3,29.50,SSE,164,3.0,5.0,77,0.00,,---,0.00,VWS V14.01,2013-02-26 00:02:00,
2013-02-25 18:03:00,57.4,50.3,29.50,ESE,122,3.0,5.0,77,0.00,,---,0.00,VWS V14.01,2013-02-26 00:03:00,
2013-02-25 18:04:00,57.4,50.3,29.50,SW,233,1.0,5.0,77,0.00,,---,0.00,VWS V14.01,2013-02-26 00:04:00,
2013-02-25 18:05:00,57.4,50.3,29.50,SW,214,1.0,5.0,77,0.00,,---,0.00,VWS V14.01,2013-02-26 00:05:00,
2013-02-25 18:07:00,57.4,50.3,29.50,South,188,1.0,5.0,77,0.00,,---,0.00,VWS V14.01,2013-02-26 00:07:00,
2013-02-25 18:09:00,57.4,50.3,29.50,ENE,66,5.0,5.0,77,0.00,,---,0.00,VWS V14.01,2013-02-26 00:09:00,
2013-02-25 18:10:00,57.5,50.4,29.50,South,181,1.0,6.0,77,0.00,,---,0.00,VWS V14.01,2013-02-26 00:10:00,
2013-02-25 18:12:00,57.5,50.4,29.50,SSE,164,3.0,6.0,77,0.00,,---,0.00,VWS V14.01,2013-02-26 00:12:00,
2013-02-25 18:14:00,57.5,50.4,29.49,ENE,77,5.0,8.0,77,0.00,,---,0.00,VWS V14.01,2013-02-26 00:14:00,
2013-02-25 18:15:00,57.6,50.5,29.49,SE,145,4.0,4.0,77,0.00,,---,0.00,VWS V14.01,2013-02-26 00:15:00,
2013-02-25 18:17:00,57.6,50.5,29.48,East,83,7.0,7.0,77,0.00,,---,0.00,VWS V14.01,2013-02-26 00:17:00,
2013-02-25 18:19:00,57.6,50.5,29.48,East,79,2.0,8.0,77,0.00,,---,0.00,VWS V14.01,2013-02-26 00:19:00,
2013-02-25 18:20:00,57.6,50.5,29.48,SW,216,4.0,8.0,77,0.00,,---,0.00,VWS V14.01,2013-02-26 00:20:00,
2013-02-25 18:22:00,57.6,50.5,29.48,ESE,110,3.0,8.0,77,0.00,,---,0.00,VWS V14.01,2013-02-26 00:22:00,
2013-02-25 18:24:00,57.6,50.5,29.48,SE,127,3.0,8.0,77,0.00,,---,0.00,VWS V14.01,2013-02-26 00:24:00,
2013-02-25 18:25:00,57.6,50.5,29.47,SSE,155,3.0,8.0,77,0.00,,---,0.00,VWS V14.01,2013-02-26 00:25:00,
2013-02-25 18:26:00,57.6,50.8,29.47,SSE,149,2.0,8.0,78,0.00,,---,0.00,VWS V14.01,2013-02-26 00:26:00,
2013-02-25 18:27:00,57.6,50.8,29.46,SSE,150,2.0,8.0,78,0.00,,---,0.00,VWS V14.01,2013-02-26 00:27:00,
2013-02-25 18:29:00,57.6,50.8,29.46,SE,143,3.0,8.0,78,0.00,,---,0.00,VWS V14.01,2013-02-26 00:29:00,
2013-02-25 18:30:00,57.6,50.8,29.46,NE,35,2.0,8.0,78,0.00,,---,0.00,VWS V14.01,2013-02-26 00:30:00,
2013-02-25 18:31:00,57.6,50.8,29.46,South,180,7.0,8.0,78,0.00,,---,0.00,VWS V14.01,2013-02-26 00:31:00,
2013-02-25 18:33:00,57.5,50.7,29.46,SE,131,2.0,8.0,78,0.00,,---,0.00,VWS V14.01,2013-02-26 00:33:00,
2013-02-25 18:34:00,57.5,50.7,29.46,SE,143,2.0,8.0,78,0.00,,---,0.00,VWS V14.01,2013-02-26 00:34:00,
2013-02-25 18:35:00,57.5,50.7,29.46,SSE,155,2.0,8.0,78,0.00,,---,0.00,VWS V14.01,2013-02-26 00:35:00,
2013-02-25 18:36:00,57.5,50.7,29.46,East,100,2.0,8.0,78,0.00,,---,0.00,VWS V14.01,2013-02-26 00:36:00,
2013-02-25 18:38:00,57.4,50.6,29.47,SE,128,3.0,8.0,78,0.00,,---,0.00,VWS V14.01,2013-02-26 00:38:00,
2013-02-25 18:39:00,57.4,50.6,29.47,ENE,69,5.0,8.0,78,0.00,,---,0.00,VWS V14.01,2013-02-26 00:39:00,
2013-02-25 18:40:00,57.4,50.6,29.47,South,172,4.0,8.0,78,0.00,,---,0.00,VWS V14.01,2013-02-26 00:40:00,
2013-02-25 18:41:00,57.4,50.6,29.47,SW,233,3.0,8.0,78,0.00,,---,0.00,VWS V14.01,2013-02-26 00:41:00,
2013-02-25 18:43:00,57.4,50.6,29.47,SSE,166,2.0,8.0,78,0.00,,---,0.00,VWS V14.01,2013-02-26 00:43:00,
2013-02-25 18:44:00,57.5,50.7,29.47,SW,218,3.0,8.0,78,0.00,,---,0.00,VWS V14.01,2013-02-26 00:44:00,
2013-02-25 18:45:00,57.5,50.7,29.47,West,269,1.0,8.0,78,0.00,,---,0.00,VWS V14.01,2013-02-26 00:45:00,
2013-02-25 18:46:00,57.5,50.7,29.47,ENE,75,3.0,3.0,78,0.00,,---,0.00,VWS V14.01,2013-02-26 00:46:00,
2013-02-25 18:48:00,57.5,50.7,29.47,SSE,150,4.0,6.0,78,0.00,,---,0.00,VWS V14.01,2013-02-26 00:48:00,
2013-02-25 18:49:00,57.5,50.7,29.47,SE,131,3.0,6.0,78,0.00,,---,0.00,VWS V14.01,2013-02-26 00:49:00,
2013-02-25 18:50:00,57.5,50.7,29.47,SSE,156,2.0,6.0,78,0.00,,---,0.00,VWS V14.01,2013-02-26 00:50:00,
2013-02-25 18:51:00,57.5,50.7,29.47,SSW,197,1.0,6.0,78,0.00,,---,0.00,VWS V14.01,2013-02-26 00:51:00,
2013-02-25 18:53:00,57.5,50.7,29.46,ESE,108,3.0,8.0,78,0.00,,---,0.00,VWS V14.01,2013-02-26 00:53:00,
2013-02-25 18:55:00,57.5,51.0,29.46,SSE,162,2.0,8.0,79,0.00,,---,0.00,VWS V14.01,2013-02-26 00:55:00,
2013-02-25 18:56:00,57.5,51.0,29.46,WSW,248,2.0,8.0,79,0.00,,---,0.00,VWS V14.01,2013-02-26 00:56:00,
2013-02-25 18:58:00,57.5,51.0,29.46,SE,125,6.0,8.0,79,0.00,,---,0.00,VWS V14.01,2013-02-26 00:58:00,
2013-02-25 19:00:00,57.5,51.0,29.45,SE,127,2.0,8.0,79,0.00,,---,0.00,VWS V14.01,2013-02-26 01:00:00,
2013-02-25 19:01:00,57.5,51.4,29.45,ESE,119,4.0,5.0,80,0.00,,---,0.00,VWS V14.01,2013-02-26 01:01:00,
2013-02-25 19:03:00,57.4,51.3,29.46,SSW,210,3.0,7.0,80,0.00,,---,0.00,VWS V14.01,2013-02-26 01:03:00,
2013-02-25 19:05:00,57.4,51.6,29.46,ESE,105,3.0,7.0,81,0.00,,---,0.00,VWS V14.01,2013-02-26 01:05:00,
2013-02-25 19:06:00,57.2,51.4,29.47,SE,124,3.0,7.0,81,0.00,,---,0.00,VWS V14.01,2013-02-26 01:06:00,
2013-02-25 19:08:00,57.1,51.7,29.46,WNW,294,2.0,7.0,82,0.00,,---,0.00,VWS V14.01,2013-02-26 01:08:00,
2013-02-25 19:10:00,57.0,51.6,29.46,ESE,108,2.0,7.0,82,0.00,,---,0.00,VWS V14.01,2013-02-26 01:10:00,
2013-02-25 19:11:00,56.9,51.5,29.46,ESE,108,3.0,7.0,82,0.00,,---,0.00,VWS V14.01,2013-02-26 01:11:00,
2013-02-25 19:13:00,57.0,51.6,29.45,West,280,3.0,9.0,82,0.00,,---,0.00,VWS V14.01,2013-02-26 01:13:00,
2013-02-25 19:15:00,57.0,51.2,29.45,SE,145,2.0,9.0,81,0.00,,---,0.00,VWS V14.01,2013-02-26 01:15:00,
2013-02-25 19:16:00,57.0,51.2,29.44,NW,325,1.0,6.0,81,0.00,,---,0.00,VWS V14.01,2013-02-26 01:16:00,
2013-02-25 19:18:00,57.1,51.3,29.45,SE,127,4.0,6.0,81,0.00,,---,0.00,VWS V14.01,2013-02-26 01:18:00,
2013-02-25 19:20:00,57.1,51.3,29.45,SSE,159,1.0,6.0,81,0.00,,---,0.00,VWS V14.01,2013-02-26 01:20:00,
2013-02-25 19:21:00,57.1,51.3,29.44,SSE,149,3.0,6.0,81,0.00,,---,0.00,VWS V14.01,2013-02-26 01:21:00,
2013-02-25 19:24:00,57.1,51.3,29.43,South,178,3.0,6.0,81,0.00,,---,0.00,VWS V14.01,2013-02-26 01:24:00,
2013-02-25 19:25:00,57.1,51.3,29.42,ENE,68,1.0,6.0,81,0.00,,---,0.00,VWS V14.01,2013-02-26 01:25:00,
2013-02-25 19:26:00,57.1,51.3,29.42,ESE,117,5.0,6.0,81,0.00,,---,0.00,VWS V14.01,2013-02-26 01:26:00,
2013-02-25 19:29:00,57.1,51.3,29.42,ESE,104,2.0,6.0,81,0.00,,---,0.00,VWS V14.01,2013-02-26 01:29:00,
2013-02-25 19:30:00,57.2,51.4,29.42,East,83,4.0,9.0,81,0.00,,---,0.00,VWS V14.01,2013-02-26 01:30:00,
2013-02-25 19:32:00,57.2,51.4,29.42,SE,131,1.0,6.0,81,0.00,,---,0.00,VWS V14.01,2013-02-26 01:32:00,
2013-02-25 19:34:00,57.2,51.4,29.42,WNW,299,1.0,6.0,81,0.00,,---,0.00,VWS V14.01,2013-02-26 01:34:00,
2013-02-25 19:35:00,57.2,51.4,29.42,SE,128,4.0,8.0,81,0.00,,---,0.00,VWS V14.01,2013-02-26 01:35:00,
2013-02-25 19:37:00,57.2,51.4,29.42,South,172,0.0,8.0,81,0.00,,---,0.00,VWS V14.01,2013-02-26 01:37:00,
2013-02-25 19:39:00,57.2,51.4,29.41,East,93,2.0,8.0,81,0.00,,---,0.00,VWS V14.01,2013-02-26 01:39:00,
2013-02-25 19:40:00,57.3,51.5,29.40,ESE,123,4.0,8.0,81,0.00,,---,0.00,VWS V14.01,2013-02-26 01:40:00,
2013-02-25 19:41:00,57.2,51.4,29.40,SE,135,3.0,8.0,81,0.00,,---,0.00,VWS V14.01,2013-02-26 01:41:00,
2013-02-25 19:42:00,57.3,51.5,29.40,South,172,2.0,8.0,81,0.00,,---,0.00,VWS V14.01,2013-02-26 01:42:00,
2013-02-25 19:44:00,57.3,51.9,29.40,ESE,108,4.0,8.0,82,0.00,,---,0.00,VWS V14.01,2013-02-26 01:44:00,
2013-02-25 19:45:00,57.3,51.9,29.40,ESE,109,4.0,8.0,82,0.00,,---,0.00,VWS V14.01,2013-02-26 01:45:00,
2013-02-25 19:46:00,57.3,51.9,29.40,ESE,106,4.0,7.0,82,0.00,,---,0.00,VWS V14.01,2013-02-26 01:46:00,
2013-02-25 19:47:00,57.4,52.0,29.40,South,183,5.0,7.0,82,0.00,,---,0.00,VWS V14.01,2013-02-26 01:47:00,
2013-02-25 19:49:00,57.4,52.0,29.40,East,94,3.0,9.0,82,0.00,,---,0.00,VWS V14.01,2013-02-26 01:49:00,
2013-02-25 19:50:00,57.4,52.0,29.40,SSW,192,7.0,9.0,82,0.00,,---,0.00,VWS V14.01,2013-02-26 01:50:00,
2013-02-25 19:51:00,57.4,52.0,29.40,South,178,2.0,9.0,82,0.00,,---,0.00,VWS V14.01,2013-02-26 01:51:00,
2013-02-25 19:52:00,57.4,52.0,29.40,SSE,147,1.0,9.0,82,0.00,,---,0.00,VWS V14.01,2013-02-26 01:52:00,
2013-02-25 19:54:00,57.4,52.0,29.40,SW,225,2.0,9.0,82,0.00,,---,0.00,VWS V14.01,2013-02-26 01:54:00,
2013-02-25 19:55:00,57.4,52.0,29.41,SE,134,3.0,9.0,82,0.00,,---,0.00,VWS V14.01,2013-02-26 01:55:00,
2013-02-25 19:56:00,57.3,51.9,29.41,SW,219,1.0,9.0,82,0.00,,---,0.00,VWS V14.01,2013-02-26 01:56:00,
2013-02-25 19:57:00,57.3,51.9,29.41,SSW,193,0.0,9.0,82,0.00,,---,0.00,VWS V14.01,2013-02-26 01:57:00,
2013-02-25 19:59:00,57.3,51.9,29.40,SE,134,4.0,11.0,82,0.00,,---,0.00,VWS V14.01,2013-02-26 01:59:00,
2013-02-25 20:01:00,57.4,52.3,29.40,East,99,3.0,5.0,83,0.00,,---,0.00,VWS V14.01,2013-02-26 02:01:00,
2013-02-25 20:02:00,57.4,52.3,29.40,ENE,70,5.0,6.0,83,0.00,,---,0.00,VWS V14.01,2013-02-26 02:02:00,
2013-02-25 20:04:00,57.4,52.3,29.41,WSW,245,3.0,8.0,83,0.00,,---,0.00,VWS V14.01,2013-02-26 02:04:00,
2013-02-25 20:06:00,57.4,52.3,29.40,SE,145,2.0,8.0,83,0.00,,---,0.00,VWS V14.01,2013-02-26 02:06:00,
2013-02-25 20:07:00,57.4,52.6,29.40,South,186,5.0,10.0,84,0.00,,---,0.00,VWS V14.01,2013-02-26 02:07:00,
2013-02-25 20:09:00,57.5,52.4,29.41,SSE,163,1.0,10.0,83,0.00,,---,0.00,VWS V14.01,2013-02-26 02:09:00,
2013-02-25 20:11:00,57.4,52.6,29.40,ESE,117,3.0,10.0,84,0.00,,---,0.00,VWS V14.01,2013-02-26 02:11:00,
2013-02-25 20:12:00,57.4,52.6,29.40,South,181,1.0,10.0,84,0.00,,---,0.00,VWS V14.01,2013-02-26 02:12:00,
2013-02-25 20:14:00,57.4,52.6,29.39,SE,138,0.0,10.0,84,0.00,,---,0.00,VWS V14.01,2013-02-26 02:14:00,
2013-02-25 20:16:00,57.3,52.5,29.40,ENE,77,3.0,8.0,84,0.00,,---,0.00,VWS V14.01,2013-02-26 02:16:00,
2013-02-25 20:17:00,57.3,52.8,29.39,WSW,255,1.0,8.0,85,0.00,,---,0.00,VWS V14.01,2013-02-26 02:17:00,
2013-02-25 20:19:00,57.1,53.0,29.40,SE,141,2.0,8.0,86,0.01,,---,0.01,VWS V14.01,2013-02-26 02:19:00,
2013-02-25 20:21:00,57.1,53.0,29.40,SE,131,2.0,8.0,86,0.01,,---,0.01,VWS V14.01,2013-02-26 02:21:00,
2013-02-25 20:22:00,57.0,52.9,29.40,ESE,114,4.0,8.0,86,0.01,,---,0.01,VWS V14.01,2013-02-26 02:22:00,
2013-02-25 20:24:00,56.8,53.0,29.39,SSE,148,1.0,8.0,87,0.01,,---,0.01,VWS V14.01,2013-02-26 02:24:00,
2013-02-25 20:26:00,56.7,52.9,29.39,SSE,150,0.0,8.0,87,0.01,,---,0.01,VWS V14.01,2013-02-26 02:26:00,
2013-02-25 20:27:00,56.7,52.9,29.39,SSE,165,2.0,8.0,87,0.01,,---,0.01,VWS V14.01,2013-02-26 02:27:00,
2013-02-25 20:29:00,56.5,53.0,29.38,SSW,198,3.0,8.0,88,0.02,,---,0.02,VWS V14.01,2013-02-26 02:29:00,
2013-02-25 20:31:00,56.3,53.1,29.38,South,181,2.0,5.0,89,0.02,,---,0.02,VWS V14.01,2013-02-26 02:31:00,
2013-02-25 20:32:00,56.3,53.1,29.38,SSW,193,1.0,5.0,89,0.02,,---,0.02,VWS V14.01,2013-02-26 02:32:00,
2013-02-25 20:34:00,56.2,53.0,29.39,East,79,3.0,8.0,89,0.02,,---,0.02,VWS V14.01,2013-02-26 02:34:00,
2013-02-25 20:36:00,56.2,53.0,29.39,South,180,1.0,8.0,89,0.02,,---,0.02,VWS V14.01,2013-02-26 02:36:00,
2013-02-25 20:37:00,56.2,53.0,29.39,SSE,154,2.0,8.0,89,0.02,,---,0.02,VWS V14.01,2013-02-26 02:37:00,
2013-02-25 20:40:00,56.1,53.2,29.38,South,176,2.0,8.0,90,0.03,,---,0.03,VWS V14.01,2013-02-26 02:40:00,
2013-02-25 20:41:00,56.1,53.2,29.38,South,180,4.0,9.0,90,0.04,,---,0.04,VWS V14.01,2013-02-26 02:41:00,
2013-02-25 20:42:00,56.1,53.2,29.38,SE,146,3.0,9.0,90,0.04,,---,0.04,VWS V14.01,2013-02-26 02:42:00,
2013-02-25 20:45:00,56.0,53.1,29.38,South,188,1.0,9.0,90,0.05,,---,0.05,VWS V14.01,2013-02-26 02:45:00,
2013-02-25 20:46:00,55.9,53.0,29.38,SSW,204,3.0,3.0,90,0.06,,---,0.06,VWS V14.01,2013-02-26 02:46:00,
2013-02-25 20:47:00,55.9,53.3,29.38,East,90,2.0,5.0,91,0.06,,---,0.06,VWS V14.01,2013-02-26 02:47:00,
2013-02-25 20:50:00,55.8,53.2,29.39,South,183,2.0,5.0,91,0.07,,---,0.07,VWS V14.01,2013-02-26 02:50:00,
2013-02-25 20:51:00,55.7,53.1,29.38,SSE,147,3.0,5.0,91,0.08,,---,0.08,VWS V14.01,2013-02-26 02:51:00,
2013-02-25 20:52:00,55.7,53.1,29.38,South,186,1.0,5.0,91,0.08,,---,0.08,VWS V14.01,2013-02-26 02:52:00,
2013-02-25 20:53:00,55.7,53.1,29.38,SSW,194,1.0,5.0,91,0.09,,---,0.09,VWS V14.01,2013-02-26 02:53:00,
2013-02-25 20:55:00,55.7,53.4,29.39,South,188,1.0,6.0,92,0.10,,---,0.10,VWS V14.01,2013-02-26 02:55:00,
2013-02-25 20:56:00,55.6,53.3,29.39,SSW,193,3.0,6.0,92,0.11,,---,0.11,VWS V14.01,2013-02-26 02:56:00,
2013-02-25 20:57:00,55.6,53.3,29.39,ENE,67,3.0,8.0,92,0.12,,---,0.12,VWS V14.01,2013-02-26 02:57:00,
2013-02-25 20:58:00,55.6,53.3,29.39,ENE,65,0.0,8.0,92,0.12,,---,0.12,VWS V14.01,2013-02-26 02:58:00,
2013-02-25 21:00:00,55.5,53.2,29.38,WNW,292,2.0,8.0,92,0.14,,---,0.14,VWS V14.01,2013-02-26 03:00:00,
2013-02-25 21:01:00,55.5,53.5,29.38,SE,127,2.0,5.0,93,0.15,,---,0.15,VWS V14.01,2013-02-26 03:01:00,
2013-02-25 21:02:00,55.5,53.5,29.37,SSE,148,1.0,5.0,93,0.15,,---,0.15,VWS V14.01,2013-02-26 03:02:00,
2013-02-25 21:03:00,55.5,53.5,29.37,ESE,120,2.0,5.0,93,0.15,,---,0.15,VWS V14.01,2013-02-26 03:03:00,
2013-02-25 21:05:00,55.5,53.5,29.37,South,187,3.0,10.0,93,0.17,,---,0.17,VWS V14.01,2013-02-26 03:05:00,
2013-02-25 21:07:00,55.5,53.5,29.37,SSE,162,9.0,10.0,93,0.18,,---,0.18,VWS V14.01,2013-02-26 03:07:00,
2013-02-25 21:08:00,55.5,53.5,29.36,SE,127,2.0,10.0,93,0.18,,---,0.18,VWS V14.01,2013-02-26 03:08:00,
2013-02-25 21:10:00,55.4,53.4,29.36,South,177,1.0,10.0,93,0.19,,---,0.19,VWS V14.01,2013-02-26 03:10:00,
2013-02-25 21:12:00,55.4,53.4,29.35,SSE,150,2.0,10.0,93,0.20,,---,0.20,VWS V14.01,2013-02-26 03:12:00,
2013-02-25 21:13:00,55.4,53.4,29.35,ESE,120,1.0,10.0,93,0.20,,---,0.20,VWS V14.01,2013-02-26 03:13:00,
2013-02-25 21:15:00,55.4,53.4,29.35,SSE,163,2.0,2.0,93,0.22,,---,0.22,VWS V14.01,2013-02-26 03:15:00,
2013-02-25 21:17:00,55.4,53.7,29.34,South,183,1.0,4.0,94,0.22,,---,0.22,VWS V14.01,2013-02-26 03:17:00,
2013-02-25 21:18:00,55.3,53.6,29.34,SSE,156,2.0,5.0,94,0.23,,---,0.23,VWS V14.01,2013-02-26 03:18:00,
2013-02-25 21:20:00,55.3,53.6,29.34,SSE,160,5.0,5.0,94,0.24,,---,0.24,VWS V14.01,2013-02-26 03:20:00,
2013-02-25 21:22:00,55.3,53.6,29.34,ESE,113,3.0,8.0,94,0.24,,---,0.24,VWS V14.01,2013-02-26 03:22:00,
2013-02-25 21:23:00,55.3,53.6,29.35,SSE,162,6.0,8.0,94,0.25,,---,0.25,VWS V14.01,2013-02-26 03:23:00,
2013-02-25 21:25:00,55.3,53.6,29.34,SE,135,6.0,8.0,94,0.25,,---,0.25,VWS V14.01,2013-02-26 03:25:00,
2013-02-25 21:27:00,55.3,53.6,29.34,East,83,4.0,8.0,94,0.26,,---,0.26,VWS V14.01,2013-02-26 03:27:00,
2013-02-25 21:29:00,55.3,53.6,29.35,SE,146,2.0,8.0,94,0.27,,---,0.27,VWS V14.01,2013-02-26 03:29:00,
2013-02-25 21:31:00,55.3,53.6,29.35,South,188,1.0,3.0,94,0.25,,---,0.27,VWS V14.01,2013-02-26 03:31:00,
2013-02-25 21:32:00,55.3,53.6,29.35,SSW,213,3.0,3.0,94,0.25,,---,0.27,VWS V14.01,2013-02-26 03:32:00,
2013-02-25 21:34:00,55.3,53.6,29.35,East,91,7.0,7.0,94,0.25,,---,0.27,VWS V14.01,2013-02-26 03:34:00,
2013-02-25 21:36:00,55.2,53.5,29.34,ESE,118,2.0,7.0,94,0.25,,---,0.27,VWS V14.01,2013-02-26 03:36:00,
2013-02-25 21:37:00,55.2,53.5,29.34,SSE,150,2.0,7.0,94,0.25,,---,0.27,VWS V14.01,2013-02-26 03:37:00,
2013-02-25 21:38:00,55.2,53.5,29.34,ESE,119,2.0,7.0,94,0.25,,---,0.27,VWS V14.01,2013-02-26 03:38:00,
2013-02-25 21:39:00,55.2,53.5,29.34,East,101,2.0,7.0,94,0.25,,---,0.27,VWS V14.01,2013-02-26 03:39:00,
2013-02-25 21:41:00,55.2,53.5,29.34,SW,217,1.0,7.0,94,0.25,,---,0.27,VWS V14.01,2013-02-26 03:41:00,
2013-02-25 21:43:00,55.1,53.4,29.34,South,183,3.0,7.0,94,0.26,,---,0.28,VWS V14.01,2013-02-26 03:43:00,
2013-02-25 21:44:00,55.1,53.4,29.34,ESE,110,5.0,7.0,94,0.26,,---,0.28,VWS V14.01,2013-02-26 03:44:00,
2013-02-25 21:46:00,55.1,53.4,29.33,East,91,3.0,4.0,94,0.24,,---,0.29,VWS V14.01,2013-02-26 03:46:00,
2013-02-25 21:48:00,55.0,53.3,29.33,SSE,149,3.0,6.0,94,0.24,,---,0.29,VWS V14.01,2013-02-26 03:48:00,
2013-02-25 21:49:00,55.0,53.3,29.32,SSE,149,2.0,6.0,94,0.24,,---,0.29,VWS V14.01,2013-02-26 03:49:00,
2013-02-25 21:51:00,55.0,53.3,29.32,SE,127,4.0,6.0,94,0.24,,---,0.29,VWS V14.01,2013-02-26 03:51:00,
2013-02-25 21:53:00,54.9,53.2,29.32,SSW,199,5.0,6.0,94,0.24,,---,0.29,VWS V14.01,2013-02-26 03:53:00,
2013-02-25 21:54:00,54.9,53.2,29.32,SSW,195,1.0,8.0,94,0.24,,---,0.29,VWS V14.01,2013-02-26 03:54:00,
2013-02-25 21:56:00,54.9,53.2,29.31,SSE,152,3.0,8.0,94,0.24,,---,0.29,VWS V14.01,2013-02-26 03:56:00,
2013-02-25 21:58:00,54.9,53.2,29.32,SE,146,1.0,8.0,94,0.24,,---,0.29,VWS V14.01,2013-02-26 03:58:00,
2013-02-25 21:59:00,54.9,53.2,29.32,ESE,108,4.0,8.0,94,0.24,,---,0.29,VWS V14.01,2013-02-26 03:59:00,
2013-02-25 22:01:00,54.8,53.1,29.31,East,86,6.0,6.0,94,0.15,,---,0.29,VWS V14.01,2013-02-26 04:01:00,
2013-02-25 22:03:00,54.8,53.1,29.31,SE,138,2.0,6.0,94,0.15,,---,0.29,VWS V14.01,2013-02-26 04:03:00,
2013-02-25 22:04:00,54.8,53.1,29.31,ESE,122,3.0,6.0,94,0.15,,---,0.29,VWS V14.01,2013-02-26 04:04:00,
2013-02-25 22:06:00,54.8,53.1,29.31,SW,219,2.0,6.0,94,0.16,,---,0.30,VWS V14.01,2013-02-26 04:06:00,
2013-02-25 22:08:00,54.7,53.0,29.33,SW,220,2.0,7.0,94,0.16,,---,0.30,VWS V14.01,2013-02-26 04:08:00,
2013-02-25 22:09:00,54.7,53.0,29.33,WSW,240,6.0,7.0,94,0.16,,---,0.30,VWS V14.01,2013-02-26 04:09:00,
2013-02-25 22:11:00,54.8,53.1,29.37,SSE,150,7.0,15.0,94,0.16,,---,0.30,VWS V14.01,2013-02-26 04:11:00,
2013-02-25 22:13:00,54.9,53.2,29.37,SSE,162,2.0,15.0,94,0.21,,---,0.35,VWS V14.01,2013-02-26 04:13:00,
2013-02-25 22:14:00,54.9,53.2,29.37,SSW,204,4.0,15.0,94,0.22,,---,0.36,VWS V14.01,2013-02-26 04:14:00,
2013-02-25 22:16:00,54.9,53.2,29.36,SSW,212,8.0,11.0,94,0.16,,---,0.37,VWS V14.01,2013-02-26 04:16:00,
2013-02-25 22:19:00,54.9,53.2,29.36,SSE,163,6.0,11.0,94,0.16,,---,0.37,VWS V14.01,2013-02-26 04:19:00,
2013-02-25 22:22:00,54.9,53.2,29.36,South,172,5.0,12.0,94,0.16,,---,0.37,VWS V14.01,2013-02-26 04:22:00,
2013-02-25 22:24:00,54.9,53.2,29.37,WSW,240,4.0,12.0,94,0.16,,---,0.37,VWS V14.01,2013-02-26 04:24:00,
2013-02-25 22:27:00,55.0,53.3,29.37,South,179,5.0,12.0,94,0.16,,---,0.37,VWS V14.01,2013-02-26 04:27:00,
2013-02-25 22:29:00,55.0,53.6,29.37,South,172,5.0,12.0,95,0.16,,---,0.37,VWS V14.01,2013-02-26 04:29:00,
2013-02-25 22:30:00,55.0,53.6,29.37,WSW,248,3.0,12.0,95,0.17,,---,0.38,VWS V14.01,2013-02-26 04:30:00,
2013-02-25 22:32:00,55.1,53.7,29.37,SSW,207,4.0,9.0,95,0.11,,---,0.38,VWS V14.01,2013-02-26 04:32:00,
2013-02-25 22:34:00,55.2,53.8,29.37,SW,221,6.0,11.0,95,0.12,,---,0.39,VWS V14.01,2013-02-26 04:34:00,
2013-02-25 22:35:00,55.2,53.8,29.37,South,183,4.0,11.0,95,0.12,,---,0.39,VWS V14.01,2013-02-26 04:35:00,
2013-02-25 22:37:00,55.3,53.9,29.37,WSW,252,2.0,16.0,95,0.13,,---,0.40,VWS V14.01,2013-02-26 04:37:00,
2013-02-25 22:39:00,55.4,54.0,29.37,SSW,213,12.0,16.0,95,0.15,,---,0.42,VWS V14.01,2013-02-26 04:39:00,
2013-02-25 22:40:00,55.4,54.0,29.37,South,172,3.0,16.0,95,0.15,,---,0.42,VWS V14.01,2013-02-26 04:40:00,
2013-02-25 22:42:00,55.5,54.1,29.36,South,176,8.0,16.0,95,0.17,,---,0.44,VWS V14.01,2013-02-26 04:42:00,
2013-02-25 22:44:00,55.5,54.1,29.36,South,183,2.0,16.0,95,0.17,,---,0.44,VWS V14.01,2013-02-26 04:44:00,
2013-02-25 22:45:00,55.5,54.1,29.36,SSW,212,3.0,16.0,95,0.18,,---,0.45,VWS V14.01,2013-02-26 04:45:00,
2013-02-25 22:47:00,55.6,54.2,29.36,SSW,202,3.0,11.0,95,0.17,,---,0.45,VWS V14.01,2013-02-26 04:47:00,
2013-02-25 22:49:00,55.6,54.2,29.36,SW,230,3.0,11.0,95,0.18,,---,0.46,VWS V14.01,2013-02-26 04:49:00,
2013-02-25 22:50:00,55.7,54.3,29.36,South,169,2.0,11.0,95,0.18,,---,0.46,VWS V14.01,2013-02-26 04:50:00,
2013-02-25 22:52:00,55.7,54.6,29.36,SW,233,7.0,11.0,96,0.19,,---,0.47,VWS V14.01,2013-02-26 04:52:00,
2013-02-25 22:54:00,55.7,54.6,29.36,SSE,156,3.0,12.0,96,0.20,,---,0.48,VWS V14.01,2013-02-26 04:54:00,
2013-02-25 22:55:00,55.8,54.7,29.36,South,189,6.0,12.0,96,0.20,,---,0.48,VWS V14.01,2013-02-26 04:55:00,
2013-02-25 22:57:00,55.7,54.3,29.35,South,186,8.0,12.0,95,0.20,,---,0.48,VWS V14.01,2013-02-26 04:57:00,
2013-02-25 22:59:00,55.8,54.4,29.36,SSW,195,10.0,16.0,95,0.21,,---,0.49,VWS V14.01,2013-02-26 04:59:00,
2013-02-25 23:00:00,55.7,54.3,29.36,SW,216,4.0,16.0,95,0.21,,---,0.49,VWS V14.01,2013-02-26 05:00:00,
2013-02-25 23:05:00,55.8,54.4,29.36,SW,219,2.0,7.0,95,0.20,,---,0.49,VWS V14.01,2013-02-26 05:05:00,
2013-02-25 23:10:00,55.7,54.0,29.36,South,177,0.0,8.0,94,0.21,,---,0.50,VWS V14.01,2013-02-26 05:10:00,
2013-02-25 23:15:00,55.4,53.4,29.35,SSE,162,1.0,11.0,93,0.22,,---,0.51,VWS V14.01,2013-02-26 05:15:00,
2013-02-25 23:20:00,55.1,53.1,29.35,SSW,200,1.0,4.0,93,0.15,,---,0.52,VWS V14.01,2013-02-26 05:20:00,
2013-02-25 23:25:00,54.9,53.2,29.36,SSW,213,3.0,5.0,94,0.15,,---,0.52,VWS V14.01,2013-02-26 05:25:00,
2013-02-25 23:30:00,54.7,53.0,29.35,SSW,200,5.0,8.0,94,0.16,,---,0.53,VWS V14.01,2013-02-26 05:30:00,
2013-02-25 23:35:00,54.5,52.8,29.35,SW,220,3.0,8.0,94,0.16,,---,0.54,VWS V14.01,2013-02-26 05:35:00,
2013-02-25 23:40:00,54.3,52.6,29.35,SSE,162,1.0,8.0,94,0.16,,---,0.54,VWS V14.01,2013-02-26 05:40:00,
2013-02-25 23:45:00,54.1,52.4,29.32,SW,217,0.0,8.0,94,0.17,,---,0.55,VWS V14.01,2013-02-26 05:45:00,
2013-02-25 23:46:00,54.1,52.4,29.32,SW,217,1.0,1.0,94,0.10,,---,0.55,VWS V14.01,2013-02-26 05:46:00,
2013-02-25 23:50:00,53.9,52.2,29.32,SSW,209,2.0,3.0,94,0.10,,---,0.55,VWS V14.01,2013-02-26 05:50:00,
2013-02-25 23:51:00,53.8,52.1,29.32,SSW,207,1.0,3.0,94,0.10,,---,0.55,VWS V14.01,2013-02-26 05:51:00,
2013-02-25 23:55:00,53.7,52.0,29.34,SSW,206,2.0,4.0,94,0.10,,---,0.55,VWS V14.01,2013-02-26 05:55:00,
2013-02-25 23:56:00,53.7,52.0,29.34,South,179,1.0,4.0,94,0.10,,---,0.55,VWS V14.01,2013-02-26 05:56:00,